GFSFLT1_con_3kmhel_000.txt.gz
Helicity
21 40 16 26 22 19 3 5 20 20 31 38 43 38 39 26 13 20 16 19 8 21 38 46 69 70 69 67 59 62 55 53 57
48 45 35 37 22 16 7 8 5 15 16 23 23 27 46 35 16 22 24 9 10 21 34 43 55 64 61 64 62 58 51 47 43
50 73 45 37 28 17 10 6 4 5 11 17 17 23 53 49 32 24 37 24 16 18 33 39 46 56 63 58 56 53 48 46 45
52 53 37 24 23 6 14 12 9 8 7 6 10 19 28 52 38 30 39 29 19 11 29 39 47 50 55 53 58 55 51 50 47
25 12 46 21 3 -8 -2 7 3 10 10 9 11 18 21 52 40 35 28 20 21 11 20 37 39 43 47 48 48 54 50 48 49
10 18 24 17 -0 2 -1 3 7 17 29 24 20 26 58 57 58 44 12 6 12 16 3 13 30 35 39 41 47 47 48 46 48
25 18 9 -0 -0 10 10 5 18 43 71 62 37 63 61 57 56 63 3 -13 -7 1 6 5 23 32 34 39 41 45 44 44 45
33 34 35 38 30 46 46 57 76 79 88 89 86 76 71 80 69 49 6 -7 -8 2 5 12 25 37 34 28 34 40 42 46 47
55 57 50 52 61 57 69 89 90 92 93 105 121 115 115 108 105 82 28 12 3 -0 11 17 26 36 41 42 31 43 53 51 55
102 96 95 95 97 110 103 101 104 120 117 115 135 133 141 142 144 129 72 34 17 10 6 16 27 31 40 58 69 62 60 67 67
126 116 112 124 150 147 146 149 140 144 152 129 148 148 153 148 156 156 135 70 42 37 30 31 37 39 33 50 79 114 112 95 87
135 143 152 164 184 168 169 169 179 166 177 164 159 162 163 170 173 183 177 162 115 85 63 57 59 65 52 47 47 61 81 87 99
166 174 177 174 195 200 188 171 166 177 190 185 182 188 166 160 170 179 184 181 183 141 85 81 77 86 82 61 69 70 68 83 90
157 165 149 143 162 180 183 164 198 149 147 179 171 172 197 195 201 201 213 219 216 217 155 145 133 124 106 84 74 85 88 91 98
121 131 122 118 127 124 146 155 139 167 165 159 151 166 194 200 218 207 218 231 228 231 201 195 185 134 114 94 87 98 110 118 119
62 74 71 83 97 93 100 127 130 123 154 160 147 140 156 167 183 202 197 183 200 206 213 229 232 222 147 123 90 74 77 95 102
116 96 84 78 68 73 88 107 101 109 112 153 126 107 94 128 131 163 210 179 189 190 215 218 218 225 236 206 135 104 60 50 51
94 83 70 68 60 52 59 69 63 75 99 113 150 143 144 133 144 188 180 177 191 207 205 209 228 225 234 223 200 168 157 78 60
91 91 89 81 77 94 92 97 96 112 117 128 136 154 162 170 133 150 159 166 180 188 199 191 209 230 251 233 214 201 193 136 102
78 81 74 79 76 89 94 109 119 107 128 138 149 161 163 168 195 162 152 140 166 144 129 128 161 191 192 220 212 203 159 108 85

GFSFLT1_con_3kmhel_003.txt.gz
Helicity
27 43 39 38 29 18 2 6 8 8 10 -2 -0 14 26 49 13 9 19 17 8 -2 4 10 7 33 42 53 49 46 48 41 39
34 52 47 35 37 21 7 5 10 8 1 -2 -7 -11 11 37 15 20 30 31 14 -0 -1 16 11 17 26 36 48 41 40 42 39
1 54 54 36 28 17 8 13 15 9 8 4 -1 -6 5 38 21 24 28 25 13 8 -0 17 13 15 21 24 34 37 33 30 31
19 48 36 32 26 16 19 11 14 15 15 13 14 6 7 12 20 24 35 30 8 1 -4 -3 13 12 12 19 24 36 33 30 27
-8 20 24 17 16 18 7 6 3 11 16 24 26 28 23 11 26 28 34 23 15 1 -0 -8 1 17 13 14 21 21 30 27 23
12 23 21 18 16 14 6 2 14 20 33 45 44 43 42 27 33 36 25 16 8 6 6 3 -5 2 20 15 16 20 20 26 26
23 28 31 30 30 34 24 17 21 29 52 64 58 58 49 52 48 47 26 11 7 7 7 9 8 -2 9 26 18 19 22 21 23
33 41 42 42 41 47 41 42 51 46 58 67 69 66 66 76 79 69 47 23 7 2 6 11 13 11 12 24 32 26 28 27 27
43 52 47 56 55 50 49 53 42 45 43 51 58 62 71 88 95 86 73 46 29 20 17 20 23 20 20 22 39 59 62 53 53
58 60 60 63 64 69 66 64 61 54 50 55 62 63 65 66 98 100 88 72 51 35 30 35 40 40 38 45 47 57 91 106 90
80 79 79 79 83 77 74 69 69 69 65 66 62 69 78 78 82 93 84 77 71 61 54 46 47 49 49 53 67 63 66 94 117
97 103 102 99 91 83 79 77 80 77 80 68 65 74 70 87 88 105 111 96 83 84 75 68 64 60 57 56 68 76 59 83 119
87 82 74 67 58 53 45 47 48 50 63 65 68 70 78 81 89 106 126 127 140 139 101 94 94 89 76 66 62 77 87 76 90
42 40 45 51 46 46 44 47 50 59 64 62 60 63 73 76 92 89 103 120 148 161 128 134 124 117 107 91 87 98 103 109 119
57 57 53 47 40 44 45 42 44 56 68 83 93 79 86 84 92 84 89 91 107 115 114 150 145 118 83 62 70 84 99 112 120
112 81 79 70 59 57 52 39 38 40 22 34 23 17 40 5 51 78 103 94 122 116 121 169 159 160 127 117 99 82 70 79 83
86 73 61 62 47 56 45 37 12 22 40 16 33 -2 38 24 98 68 93 72 123 127 98 100 100 134 148 154 157 153 98 91 91
74 60 43 39 29 29 33 43 49 37 53 82 70 62 106 75 94 130 100 119 123 74 75 125 110 112 110 128 131 142 162 108 83
77 65 58 57 44 63 56 69 75 86 104 99 114 124 144 138 60 135 171 109 168 149 103 46 27 46 104 68 65 92 138 110 91
58 27 7 1 -7 19 34 48 53 52 69 76 91 106 125 132 166 117 144 117 109 103 98 80 88 54 23 63 83 75 87 51 47

GFSFLT1_con_3kmhel_006.txt.gz
Helicity
41 37 45 51 47 44 51 52 46 37 36 24 17 11 18 25 5 -2 -9 5 10 16 7 6 2 0 12 9 17 13 12 19 15
20 52 50 56 47 58 54 45 49 43 39 25 13 8 21 29 10 22 13 16 20 14 11 4 18 12 1 3 1 14 10 13 13
8 39 51 43 40 50 53 37 36 38 34 29 28 26 28 32 23 27 29 30 25 13 14 23 25 23 17 9 9 7 13 12 12
51 40 35 36 34 43 44 34 31 30 36 35 37 36 32 26 36 38 45 52 43 30 22 28 28 32 29 19 13 10 11 13 15
15 24 40 36 33 45 43 31 21 10 19 28 33 44 43 20 31 42 48 59 42 32 31 26 31 31 33 36 29 24 15 18 17
14 34 30 32 31 28 25 19 7 22 29 38 47 52 29 22 40 48 65 67 38 34 34 35 32 35 28 42 46 36 32 27 26
24 26 39 30 31 26 20 16 22 30 29 42 70 46 33 43 42 45 61 46 32 32 37 41 42 43 40 36 41 47 42 38 35
29 32 30 28 38 19 25 30 31 31 37 40 43 45 49 57 60 58 80 49 26 26 34 41 45 47 47 44 42 49 66 64 55
34 38 32 34 38 41 44 53 47 44 43 43 44 47 61 75 78 74 110 91 49 39 39 40 43 46 50 52 53 58 62 88 97
61 59 66 62 57 59 60 59 60 60 60 64 63 68 77 82 113 122 130 152 110 74 67 63 54 52 54 61 75 78 72 79 103
95 82 67 66 65 65 60 56 58 59 60 61 64 68 79 82 82 110 106 140 132 107 85 84 87 84 74 66 78 90 87 81 81
64 58 55 58 61 53 58 59 62 57 58 59 68 77 73 75 72 82 94 89 107 117 78 61 73 86 89 83 86 101 116 116 118
57 50 55 67 59 57 49 53 50 57 67 72 73 78 70 60 62 71 75 82 92 104 76 74 58 45 56 72 79 102 110 117 115
65 71 66 55 57 61 62 61 60 62 59 62 66 67 66 59 63 59 55 60 73 91 85 119 129 127 85 57 50 64 89 105 115
87 88 102 94 84 78 73 73 67 54 55 55 47 47 42 46 69 81 97 89 90 91 87 98 105 102 106 120 95 76 81 97 100
131 99 94 83 68 56 43 36 27 17 23 7 49 30 -42 62 58 217 120 71 66 63 76 101 116 121 86 81 70 82 94 82 82
89 77 57 51 35 39 37 41 36 56 71 70 67 30 40 109 191 96 65 94 75 98 113 78 61 105 100 94 70 88 78 59 103
64 53 41 43 40 44 45 54 56 61 64 96 91 90 99 79 57 88 40 174 154 138 142 168 149 113 96 82 62 41 18 -3 -18
64 56 49 35 19 36 43 66 69 73 80 70 76 81 93 94 87 98 118 90 159 117 116 122 114 105 96 103 102 64 76 76 62
46 1 -18 35 58 69 67 67 66 60 69 73 71 78 86 95 133 119 113 94 97 111 109 89 109 113 92 111 137 170 161 181 178

GFSFLT1_con_3kmhel_009.txt.gz
Helicity
31 47 41 42 38 43 49 62 61 66 73 74 68 51 52 55 49 55 42 42 44 48 43 29 21 19 23 26 21 7 10 5 5
31 43 33 46 33 34 38 47 54 60 67 60 60 55 64 50 47 51 55 54 52 43 43 41 41 44 40 34 29 26 15 16 9
66 47 36 44 48 39 43 48 36 33 31 33 41 45 43 31 37 34 45 63 55 47 42 34 47 48 50 53 44 41 36 32 23
64 54 41 55 49 52 59 40 31 20 20 33 43 50 50 35 32 25 45 64 58 53 45 44 48 53 48 51 54 52 51 43 36
39 34 45 54 45 34 31 14 6 -8 -3 7 19 45 53 28 31 47 57 55 67 54 44 47 47 43 52 50 59 56 55 52 43
56 75 50 36 22 16 11 4 -3 -0 10 14 33 62 50 16 33 52 41 65 48 34 32 38 47 53 48 62 61 70 63 58 57
53 45 49 35 16 14 -7 -10 -3 18 17 27 52 58 25 50 61 76 63 78 42 24 28 30 40 53 59 61 70 70 77 73 74
59 55 55 45 49 36 32 33 50 37 51 52 49 58 68 91 104 91 100 125 87 59 56 51 47 49 58 67 72 86 92 92 93
75 76 76 63 57 54 49 53 45 40 36 44 49 59 81 101 117 117 111 144 114 94 79 76 82 78 69 65 70 89 96 100 100
98 83 71 69 62 46 55 47 50 56 66 68 62 65 72 84 120 138 117 137 138 108 88 72 63 75 86 83 91 98 104 105 107
74 61 60 66 70 68 65 63 61 68 75 81 71 60 72 77 84 110 117 122 142 125 97 75 54 43 53 65 86 100 109 115 114
69 62 65 92 77 69 73 63 63 72 73 68 81 84 80 73 62 71 93 100 97 114 81 68 69 64 45 40 55 83 100 112 116
80 93 106 82 81 77 92 89 93 84 66 60 64 57 56 57 55 61 67 102 97 109 87 71 54 67 86 81 55 57 70 86 103
132 123 114 104 108 106 96 91 86 73 60 72 81 73 73 70 52 47 54 94 120 105 84 45 93 93 75 74 78 80 77 80 86
142 137 137 119 104 97 84 77 70 54 62 66 52 59 58 58 55 143 240 170 136 125 96 105 110 69 36 40 70 75 71 105 111
162 133 123 107 86 71 59 49 36 16 51 33 71 59 68 114 208 165 113 102 145 138 151 148 159 119 110 61 51 52 66 43 47
126 115 86 73 45 51 35 40 39 61 67 73 46 35 34 138 103 89 82 68 118 97 127 145 118 121 127 127 188 104 55 54 36
92 69 47 35 19 33 51 71 67 64 65 88 62 28 42 54 47 67 43 142 99 111 101 105 106 105 99 89 102 130 187 225 218
56 38 36 44 43 65 73 84 69 77 75 72 76 64 74 68 66 111 97 92 126 84 98 112 96 77 106 118 93 137 218 182 189
33 10 27 57 78 92 86 90 92 85 86 73 63 58 68 86 105 118 128 146 123 164 131 222 152 114 95 153 198 204 222 216 194

GFSFLT1_con_3kmhel_012.txt.gz
Helicity
42 62 41 48 34 29 23 30 36 36 41 38 45 42 47 74 49 42 52 74 67 66 60 56 60 76 72 63 58 53 40 41 38
60 67 43 42 30 28 29 26 28 26 20 23 21 29 36 41 49 45 28 55 46 45 46 53 52 59 69 68 62 54 52 39 43
79 60 43 47 53 42 30 33 20 8 0 5 8 22 42 39 37 41 58 14 20 42 43 44 47 43 60 64 69 64 54 48 43
57 66 39 31 36 25 18 1 -11 -20 -22 -17 0 21 37 55 59 26 31 23 2 32 38 33 35 39 46 54 54 60 59 54 56
45 45 36 34 25 10 -1 -13 -18 -22 -24 -19 -14 1 36 76 56 44 52 -7 -15 10 23 23 20 28 35 45 57 63 60 59 57
29 63 75 30 6 -6 -9 -17 -16 -5 11 0 -15 10 87 64 51 78 72 39 20 16 21 19 11 8 16 27 39 60 64 66 71
92 63 52 28 14 13 0 -2 3 16 47 49 19 88 114 90 87 111 77 66 53 58 57 49 37 34 30 34 36 38 57 67 73
78 68 67 51 39 61 39 45 61 60 60 73 64 96 112 127 124 128 100 99 71 70 76 82 67 61 56 52 51 56 61 60 73
66 66 62 56 56 48 44 47 37 62 64 81 89 86 102 127 155 147 123 122 109 83 82 82 76 61 39 47 54 65 69 68 61
87 69 49 49 68 69 71 65 62 52 57 61 58 46 64 58 75 73 57 66 103 83 66 60 54 50 46 47 38 73 89 84 83
75 55 86 101 76 80 81 73 77 66 59 54 47 47 39 36 44 54 54 43 58 63 52 50 43 41 39 42 52 45 56 81 101
95 113 101 101 113 119 111 117 100 88 79 71 74 82 71 77 78 84 96 117 100 96 83 53 61 51 42 36 45 62 58 60 63
194 176 177 152 138 135 127 106 87 75 68 76 67 50 51 64 55 52 113 141 154 138 155 129 92 61 24 27 38 50 60 77 78
198 193 183 186 163 140 116 95 66 44 56 57 56 66 52 44 105 153 132 94 67 70 88 85 124 172 209 153 95 79 95 96 102
220 184 160 151 131 108 90 79 69 58 44 50 53 60 74 111 95 77 70 59 56 88 90 99 101 117 104 118 137 137 143 122 71
182 150 119 103 98 80 75 40 35 33 60 42 45 15 70 78 84 59 95 89 102 88 73 52 36 38 47 39 54 62 56 94 105
105 92 80 77 69 72 60 45 29 44 54 23 25 5 32 80 63 32 42 34 29 59 82 57 52 82 69 65 101 121 144 208 200
80 67 53 44 41 47 62 60 66 48 69 82 54 8 10 30 -5 46 13 64 64 86 75 59 92 89 113 99 96 98 145 238 258
43 16 13 34 51 74 67 79 81 91 76 73 87 81 91 63 45 94 121 82 93 81 87 77 88 89 100 96 142 240 297 314 339
28 7 19 45 69 85 90 88 91 85 94 93 91 91 100 97 108 91 116 109 104 119 92 146 126 105 87 77 137 235 209 207 208

GFSFLT1_con_3kmhel_015.txt.gz
Helicity
33 68 61 47 34 20 8 -2 7 10 10 8 5 6 2 22 13 9 -9 16 16 46 61 49 42 46 57 72 76 66 59 54 51
64 75 85 54 25 12 -0 -5 -5 -12 -16 -21 -20 -14 -6 4 4 5 -3 6 3 7 16 28 37 28 32 38 53 54 51 51 49
28 38 35 25 11 11 -5 -10 -16 -23 -24 -23 -19 -8 4 29 29 25 24 -13 -22 -12 3 12 15 20 12 23 22 33 42 42 46
13 26 15 2 8 -3 -5 -14 -20 -22 -20 -20 -15 -5 5 44 68 45 38 -17 -35 -21 -12 9 9 9 6 5 14 14 21 37 39
23 32 14 1 -2 -9 -15 -16 -20 -23 -18 -17 -14 -13 -1 45 66 54 45 -12 -17 -5 -4 15 17 12 7 -0 -1 7 10 15 34
27 26 25 42 18 -5 -13 -23 -25 -16 -7 -15 -18 -9 65 79 80 80 34 -4 3 -1 25 47 30 23 19 13 4 3 4 5 22
42 48 67 40 26 18 10 4 15 30 76 81 57 91 87 101 118 125 64 24 30 19 43 72 84 57 37 27 21 18 17 17 17
58 47 37 40 28 41 38 44 51 52 69 67 71 75 84 105 118 121 75 42 11 14 36 61 83 91 63 35 36 39 37 45 51
48 49 50 56 46 39 46 45 35 35 40 54 44 40 41 45 39 31 31 29 34 36 18 23 30 36 43 28 21 41 37 51 72
72 78 85 89 88 81 89 104 118 109 89 67 55 50 45 25 21 30 32 46 62 76 58 44 52 46 37 31 33 51 50 39 41
90 117 110 130 148 166 157 139 107 91 72 72 71 68 62 54 63 69 91 119 169 203 206 189 141 100 78 66 61 66 65 59 49
186 191 190 177 167 156 138 130 99 99 96 84 77 63 45 61 74 104 110 123 127 157 211 212 206 180 158 167 148 121 86 63 72
208 190 200 179 166 146 133 111 99 98 93 76 77 68 70 94 133 124 105 100 89 82 106 153 140 169 165 150 144 140 154 156 152
216 195 176 170 149 139 115 106 89 73 70 63 55 68 76 105 83 81 83 82 54 53 88 106 110 124 144 141 160 156 139 121 125
182 163 161 142 120 116 97 94 84 47 37 40 53 49 68 78 74 76 61 72 77 80 100 27 19 68 92 97 97 94 109 109 96
146 120 113 100 93 84 79 46 54 54 64 30 40 19 53 83 74 69 84 77 77 58 33 28 23 70 109 106 110 129 157 159 175
101 83 72 76 67 75 69 59 42 26 32 -0 -18 -6 4 80 65 67 67 44 36 54 43 58 66 59 60 73 119 101 126 206 206
75 65 50 43 35 51 54 65 63 36 39 72 41 30 45 42 49 36 48 52 56 61 63 54 61 66 55 53 83 117 129 223 231
61 45 27 19 23 58 57 68 59 66 68 53 91 102 112 81 69 124 79 56 90 73 82 75 66 75 78 67 85 94 173 172 195
43 28 23 25 38 58 82 92 99 83 77 81 81 88 92 107 142 110 144 127 119 110 108 105 103 94 82 77 89 123 148 165 161

GFSFLT1_con_3kmhel_021.txt.gz
Helicity
47 34 48 33 27 25 23 18 13 16 14 14 11 19 18 30 38 38 26 26 11 17 19 17 24 24 17 18 12 12 22 19 12
11 31 52 21 17 16 17 18 17 17 12 12 9 19 23 46 52 49 40 32 8 -4 2 7 3 10 16 24 20 13 14 11 12
15 42 23 10 0 0 0 -3 -6 -7 -9 -6 -6 -6 11 31 49 53 57 21 -2 0 2 -5 -3 1 15 14 14 6 15 11 15
19 24 14 0 -5 2 -3 -7 -13 -14 -9 -5 -5 5 10 34 60 67 79 38 16 5 8 4 -6 1 16 18 16 10 2 -13 1
-9 14 12 3 2 0 -4 -8 -7 1 4 11 14 24 28 52 71 89 108 63 50 36 20 13 7 8 21 34 25 16 8 9 2
-10 5 12 4 3 -1 -2 0 6 16 22 22 26 29 59 51 63 81 66 51 53 47 33 14 17 14 29 39 47 29 20 6 19
11 10 5 0 -4 8 11 8 14 31 33 32 46 59 56 58 64 63 78 92 76 83 79 98 94 65 36 30 32 26 20 4 0
20 24 31 38 30 30 23 36 50 71 71 77 78 86 88 72 68 77 107 105 105 106 94 96 85 83 79 60 46 42 26 16 14
53 59 53 55 50 68 83 81 91 92 93 87 89 90 85 82 79 97 141 143 151 156 144 144 129 130 161 186 189 180 147 137 147
74 79 88 97 99 94 88 90 80 75 79 83 88 94 98 103 109 134 186 192 202 190 211 176 210 240 225 241 242 223 205 202 198
118 129 132 125 105 93 81 75 74 70 67 84 99 104 100 119 152 157 166 222 219 216 200 226 227 247 231 214 223 231 243 210 180
121 135 128 107 101 96 92 90 85 84 98 105 114 114 123 157 189 161 137 143 166 189 196 212 224 233 230 230 220 211 198 181 166
155 137 124 112 109 100 86 88 98 103 91 80 96 103 125 154 171 139 130 110 110 138 183 204 209 209 199 205 186 172 165 164 142
155 137 120 112 105 103 94 90 78 62 72 80 87 89 117 154 154 129 146 110 117 120 161 183 170 175 169 170 166 173 180 168 156
162 139 121 100 94 98 83 88 74 51 43 60 75 86 113 147 144 126 115 99 110 127 123 83 72 148 174 173 179 198 195 197 195
160 129 109 95 82 75 87 74 87 68 65 51 77 89 113 120 133 85 104 87 131 117 103 84 93 105 141 151 179 175 180 191 192
146 111 91 80 69 81 79 83 67 65 60 35 26 43 74 103 87 109 92 92 65 85 78 86 95 109 122 126 161 172 194 208 229
133 113 93 83 59 55 52 59 68 62 54 64 48 41 73 68 37 95 85 61 66 66 76 81 93 112 118 134 144 166 197 222 229
130 116 97 69 45 58 52 61 59 56 56 61 93 78 92 101 100 75 108 42 65 53 76 91 92 103 126 118 131 142 178 203 206
143 112 83 67 53 52 68 78 85 79 83 83 83 87 104 89 129 133 92 70 69 76 84 110 132 126 144 155 141 136 171 160 176

GFSFLT1_con_3kmhel_024.txt.gz
Helicity
28 15 32 27 21 23 22 18 17 13 15 14 11 19 25 36 42 41 35 42 22 20 14 20 27 24 22 25 25 15 15 18 22
21 45 34 22 8 4 5 6 8 9 8 0 2 1 26 31 42 46 49 47 21 10 4 2 0 6 9 13 25 22 17 12 12
19 44 27 16 7 2 4 4 4 1 3 4 9 15 22 41 59 61 66 47 28 21 15 12 -7 2 9 11 11 7 1 -6 10
9 32 15 8 0 -1 5 9 4 7 12 14 23 33 36 52 67 76 81 53 34 30 18 14 13 -4 -9 7 10 13 12 10 10
-9 3 -1 -1 6 10 8 8 10 13 14 12 18 24 32 38 48 59 60 41 34 30 25 7 7 2 5 19 36 29 21 13 1
-6 0 3 8 15 4 12 11 14 22 36 48 57 64 55 53 62 60 55 53 58 64 63 74 73 57 25 12 24 35 29 20 14
6 15 21 12 17 21 20 22 41 48 43 61 79 62 70 69 73 65 92 93 97 98 97 98 94 76 76 64 58 61 46 24 10
32 28 32 35 32 40 57 70 64 65 64 66 63 64 68 72 72 91 114 115 132 131 133 133 100 141 144 153 149 144 158 165 159
56 54 57 69 75 87 83 73 72 71 69 71 73 74 72 81 99 115 154 153 141 140 160 115 200 196 204 215 215 220 219 194 163
71 78 91 97 94 97 89 75 74 75 74 71 81 89 96 122 134 134 189 186 186 174 170 212 215 193 173 170 197 223 228 220 190
99 109 109 106 90 78 72 69 70 68 68 78 87 93 87 127 145 138 142 171 170 177 180 188 172 177 184 195 184 174 168 168 174
119 122 121 103 86 83 73 68 75 78 86 96 93 96 101 145 162 143 122 119 162 170 171 182 178 174 177 176 161 154 149 160 148
110 117 111 94 96 75 62 64 67 72 73 74 84 93 99 149 176 147 123 108 105 118 151 166 162 148 138 141 136 143 147 146 138
140 121 114 112 98 77 57 63 61 53 63 75 85 77 105 163 182 153 142 127 105 74 117 137 117 120 110 109 113 130 138 135 130
175 174 135 107 87 81 63 63 54 34 36 45 66 77 105 143 164 125 118 123 84 81 95 70 52 97 109 115 128 144 144 141 145
196 154 128 98 79 56 48 20 49 44 38 30 63 75 96 106 125 135 95 116 96 97 60 66 71 79 96 110 125 144 132 149 150
182 141 119 94 59 56 45 44 21 23 18 8 -5 28 55 109 87 84 96 117 98 66 87 73 84 92 106 92 110 119 123 141 161
170 139 111 83 49 34 23 22 33 31 21 32 22 6 35 58 72 121 79 104 67 77 71 69 65 80 93 91 92 94 108 124 148
165 137 104 83 59 50 26 26 20 20 37 36 71 78 97 72 74 96 112 78 84 52 80 55 70 71 81 71 80 102 113 134 169
163 129 112 101 72 57 59 55 61 48 49 54 71 92 112 117 159 155 127 76 69 62 54 104 42 48 69 93 82 67 100 118 141

GFSFLT1_con_3kmhel_027.txt.gz
Helicity
20 24 32 28 25 33 33 30 31 35 33 29 26 27 33 42 36 44 44 34 32 19 11 3 18 31 19 24 25 36 33 33 26
19 28 22 21 19 22 18 21 17 20 17 19 22 23 32 34 37 44 41 40 34 29 19 10 6 -1 -3 4 5 23 27 24 24
5 42 19 17 9 5 7 13 13 17 22 26 25 23 27 31 37 40 38 35 24 17 16 5 -5 -12 -5 -6 1 9 10 12 6
5 29 13 5 -2 -1 4 8 14 13 15 15 16 17 28 29 40 37 37 34 21 12 7 -1 2 -0 -7 -8 -0 5 11 10 9
23 17 7 2 5 11 15 22 30 38 47 52 47 50 55 45 48 56 45 37 32 30 35 38 49 37 12 2 8 17 21 19 18
16 29 20 19 20 17 27 41 59 73 70 70 65 59 55 63 54 50 60 52 59 64 77 80 81 73 67 65 74 58 35 22 11
31 44 41 29 25 35 51 77 86 69 53 66 65 56 58 57 58 61 74 79 87 92 104 97 85 111 116 115 123 144 150 138 134
40 41 45 41 47 53 81 78 70 67 59 59 64 61 65 60 68 94 124 108 95 113 112 126 169 164 165 162 149 149 156 161 159
69 77 76 81 78 90 83 69 71 72 66 68 72 74 75 86 89 111 131 146 147 127 139 177 176 144 133 136 158 174 175 167 159
92 97 102 93 94 85 79 79 73 74 74 77 88 87 85 95 97 100 149 147 144 176 176 161 142 140 136 146 149 144 141 137 135
117 121 118 112 91 82 87 82 76 75 73 84 93 95 89 101 107 107 118 165 174 163 154 158 143 143 140 135 117 104 105 108 110
132 133 123 101 94 92 77 79 72 73 71 73 73 77 76 110 125 129 124 126 150 141 147 157 152 146 136 126 112 102 95 90 79
160 130 113 94 86 84 81 71 65 53 56 61 69 73 69 116 136 139 125 126 116 122 148 164 142 132 122 110 102 103 112 108 92
169 123 111 118 100 89 73 73 55 55 54 51 57 58 82 126 151 152 129 124 119 105 113 129 116 108 97 90 87 90 97 98 89
194 119 140 117 105 91 77 72 61 35 29 23 45 71 87 100 135 146 132 130 135 122 95 83 71 90 90 94 102 98 102 95 83
172 153 157 130 116 94 76 48 40 36 27 25 51 61 77 83 101 93 94 94 103 113 94 85 73 77 101 103 100 88 98 97 96
158 171 149 122 95 96 83 43 14 10 17 -3 -18 34 52 107 65 98 115 122 126 106 120 94 93 85 87 83 90 97 100 103 113
188 166 140 116 97 79 61 49 33 21 14 29 13 3 37 66 59 96 109 134 99 81 73 62 62 57 61 66 73 74 86 95 98
175 161 140 122 90 70 58 44 36 12 33 15 38 38 51 42 40 60 93 88 83 51 34 30 23 23 34 52 66 85 92 107 118
175 157 138 115 91 83 69 55 47 35 25 33 40 61 74 88 91 95 99 81 45 33 21 25 12 24 35 48 44 39 75 84 93

GFSFLT1_con_3kmhel_030.txt.gz
Helicity
32 39 42 39 38 40 47 47 45 45 45 36 32 48 44 17 29 31 38 29 41 22 20 4 10 18 23 14 21 25 27 26 40
31 33 26 21 20 24 27 28 30 29 25 22 19 20 24 11 23 23 25 23 19 10 10 2 -1 -3 -4 -4 1 6 14 20 17
-8 23 17 12 11 10 14 19 22 22 23 23 19 20 18 14 23 28 27 45 21 11 7 13 3 -2 -8 -12 -11 -1 5 8 10
17 21 12 3 4 10 14 22 24 24 28 41 45 37 34 13 41 32 32 50 29 9 15 12 15 15 1 -0 -2 -1 2 8 10
43 25 16 11 18 26 28 36 46 59 61 61 55 39 14 42 41 49 62 37 54 59 55 61 57 55 54 59 63 40 19 18 14
18 58 43 33 35 43 45 54 63 59 64 70 53 6 43 46 52 59 70 68 81 80 83 81 83 96 102 97 108 109 107 103 80
45 54 50 43 45 59 82 78 51 23 46 52 28 46 45 49 60 74 102 104 95 98 97 132 138 130 128 111 104 117 126 129 131
49 54 50 44 39 59 65 65 50 59 57 49 49 46 44 51 61 100 107 117 135 111 136 163 152 132 124 123 139 138 134 130 130
69 67 79 85 82 90 71 51 61 57 54 53 50 49 51 63 71 97 129 123 123 146 162 148 135 134 127 140 135 133 124 122 120
95 100 91 103 90 78 59 64 64 68 62 54 56 57 62 70 77 97 126 135 162 155 155 139 127 127 130 124 116 112 106 106 107
132 116 108 105 87 73 74 76 70 66 64 58 57 60 66 67 80 92 109 162 159 158 152 137 128 131 134 121 108 100 92 92 91
121 127 101 98 89 76 71 70 61 57 53 51 48 49 56 66 80 93 112 114 156 163 153 145 140 134 128 119 116 110 102 94 95
141 142 113 95 94 75 72 58 53 52 51 42 46 40 50 75 91 108 123 134 125 112 132 133 129 122 107 102 101 99 95 97 93
171 134 121 92 87 81 64 60 55 53 49 36 43 52 59 86 94 121 131 126 113 102 102 100 87 99 85 83 92 103 97 90 87
218 155 121 95 94 78 67 63 60 52 40 28 39 64 74 87 94 110 112 114 100 88 90 87 91 69 76 82 93 99 94 102 90
176 142 135 114 103 89 74 62 53 43 34 20 40 56 72 79 92 87 97 118 94 95 100 87 97 99 92 99 118 120 121 116 111
175 110 134 117 105 102 87 57 38 37 37 27 24 56 63 87 65 101 103 100 113 116 113 105 100 99 100 104 105 116 126 136 133
209 143 150 125 110 96 84 67 45 38 40 44 35 27 69 97 75 87 106 109 120 111 96 84 77 80 81 78 85 97 106 112 115
127 172 149 127 109 96 80 68 60 32 48 33 60 68 83 75 73 78 25 102 72 77 74 66 61 64 74 83 75 104 122 123 128
157 161 145 129 113 100 79 64 61 63 57 56 56 59 64 68 95 82 90 90 75 64 58 40 29 35 45 54 51 84 60 56 71

GFSFLT1_con_3kmhel_033.txt.gz
Helicity
54 50 48 45 48 53 56 56 54 47 41 35 29 32 27 6 6 24 36 23 48 31 29 21 10 9 18 16 18 14 22 22 26
40 42 36 30 30 29 30 31 27 24 22 20 21 20 10 -4 10 19 29 64 43 30 23 22 16 10 1 -2 -3 -6 2 5 13
12 26 19 16 15 15 17 21 21 16 19 22 21 17 11 15 31 36 38 62 43 35 27 25 20 15 3 4 3 -2 -1 4 3
-2 25 12 10 12 18 18 23 27 22 34 40 34 22 12 3 61 37 69 67 61 70 78 80 68 64 53 60 41 25 -7 -6 4
50 41 27 26 25 29 30 33 34 40 44 37 28 14 -3 19 36 62 73 73 74 80 86 78 81 84 80 88 90 92 89 91 68
27 64 62 45 41 41 42 49 37 30 40 31 25 10 52 54 61 97 100 79 79 87 92 109 118 108 104 94 108 120 119 117 119
70 69 58 48 50 56 54 40 13 10 33 40 24 47 50 51 68 92 98 89 89 107 107 146 130 117 111 104 116 123 126 131 143
56 60 47 41 32 30 29 33 43 50 53 47 50 48 43 55 72 116 121 126 114 116 170 134 132 132 124 130 120 116 114 121 118
71 59 71 104 90 77 54 45 52 43 46 52 48 46 45 67 82 127 123 111 132 174 156 138 123 126 130 121 107 103 110 110 110
96 120 128 117 94 68 60 62 54 53 49 45 46 54 59 71 75 118 125 144 150 160 160 133 118 117 119 112 104 94 99 96 98
143 167 130 108 86 81 78 79 73 64 53 47 49 56 63 65 71 102 110 138 148 148 137 128 119 116 114 110 100 91 83 80 83
144 138 121 99 97 88 78 70 66 54 45 32 52 53 59 63 68 75 126 87 121 128 121 111 107 112 115 108 94 86 84 82 83
125 128 131 97 91 96 93 78 54 43 41 41 51 48 49 44 68 87 95 109 98 86 107 95 86 88 102 101 92 88 100 99 94
161 131 119 86 104 97 86 79 58 45 41 33 44 64 61 68 84 86 98 99 96 107 93 75 56 60 85 100 99 103 109 110 103
181 168 147 108 89 97 88 72 61 54 39 27 35 69 66 81 74 83 85 92 92 103 109 83 88 82 81 88 98 109 113 112 108
220 201 187 140 96 103 89 72 61 60 43 9 35 40 64 56 71 83 80 83 78 93 101 106 105 106 106 102 114 117 119 127 128
222 231 180 166 113 119 93 67 55 52 45 20 -8 25 58 57 57 103 113 112 129 120 123 115 107 112 109 103 107 104 121 131 131
312 271 196 167 126 113 97 78 66 47 43 45 32 24 62 101 83 103 112 106 119 124 108 95 104 109 101 102 110 105 96 90 107
304 288 239 171 137 111 96 84 74 44 60 28 61 78 111 94 104 150 110 105 129 86 105 104 97 84 88 99 87 95 97 102 105
267 298 168 194 135 117 103 86 79 72 64 65 69 64 66 64 99 96 91 124 122 133 112 93 84 62 73 102 101 91 103 65 58

GFSFLT1_con_3kmhel_036.txt.gz
Helicity
44 43 42 46 49 51 50 51 49 44 36 28 20 18 7 11 20 20 17 58 52 38 30 30 23 14 8 11 11 13 13 15 17
33 29 27 29 28 30 35 34 33 28 24 21 16 13 6 3 30 53 46 37 38 32 30 33 30 26 13 3 -1 -1 -1 -3 0
17 16 18 20 20 23 25 25 23 18 12 10 9 4 -3 8 21 73 57 63 58 71 82 87 81 72 72 37 10 9 -1 -5 0
17 16 17 16 21 22 18 19 18 14 18 17 9 2 8 40 39 94 60 68 71 72 83 91 91 107 118 90 82 82 89 67 47
53 35 24 30 26 25 22 19 15 19 20 14 6 12 39 57 86 72 80 87 74 81 77 98 128 115 103 110 120 124 121 122 130
59 45 49 46 36 31 29 21 11 5 13 9 13 42 47 88 81 57 94 88 81 83 123 131 126 116 105 118 127 127 132 143 151
77 78 61 54 48 47 31 14 7 21 17 14 26 55 62 81 81 75 112 113 122 115 139 126 123 117 120 113 108 109 119 122 125
106 72 56 56 60 35 32 24 31 58 53 61 56 57 61 95 98 105 116 110 107 151 140 120 116 112 119 109 99 93 94 100 114
86 80 54 68 53 71 47 47 62 58 65 59 61 60 54 83 91 104 112 121 149 161 133 114 103 104 100 91 88 81 81 82 86
40 78 166 160 135 79 60 98 86 80 68 59 59 69 78 106 112 99 129 130 134 144 121 99 93 88 88 80 81 76 73 75 74
96 230 208 160 101 87 135 119 94 84 67 60 51 61 74 92 119 92 96 111 119 117 105 95 90 87 85 81 80 75 74 74 75
204 229 205 139 113 133 139 112 98 97 72 59 47 74 72 79 97 120 88 75 86 87 87 89 81 78 79 84 89 86 82 84 83
247 213 182 134 121 138 149 126 106 91 76 52 44 56 67 59 99 120 118 94 77 76 85 78 76 70 79 85 91 90 91 93 95
244 202 174 140 146 152 127 127 113 95 68 41 35 61 63 58 107 105 122 104 107 90 76 73 68 55 73 85 85 92 98 101 103
237 215 221 194 184 144 119 109 102 81 55 31 24 46 53 66 82 88 102 96 112 76 85 68 84 106 83 86 90 95 104 109 112
263 268 289 231 172 134 129 116 92 96 64 41 32 23 59 46 40 62 83 90 96 70 80 109 91 76 80 90 82 94 99 108 111
342 326 317 263 258 211 161 116 86 68 68 40 21 34 42 42 33 82 116 98 121 139 131 106 82 85 90 90 80 100 107 96 100
369 378 384 319 259 230 208 139 90 67 54 53 35 46 39 45 95 90 132 110 115 118 96 80 83 105 101 86 90 89 75 72 65
433 402 349 292 266 241 170 132 101 75 57 46 57 65 78 75 81 125 130 98 131 113 108 98 103 107 101 83 92 82 69 66 70
453 379 357 341 275 241 200 139 123 100 73 62 60 63 72 81 112 100 105 117 101 104 102 106 101 91 90 102 107 72 71 70 64

GFSFLT1_con_3kmhel_039.txt.gz
Helicity
34 34 35 37 38 41 42 40 37 33 28 22 19 10 2 4 37 17 53 41 40 36 36 37 21 16 8 3 22 11 2 9 13
22 22 24 24 25 26 25 25 25 24 20 22 19 15 12 15 52 50 35 26 43 41 44 52 45 54 28 8 4 0 -1 -2 1
17 12 13 11 12 16 16 14 16 15 16 17 14 22 33 62 60 51 42 63 56 68 75 78 94 98 79 103 61 60 49 22 8
22 16 11 11 13 15 17 19 18 19 18 13 17 37 55 62 75 64 59 80 75 75 68 93 125 108 120 138 136 128 112 108 111
38 18 15 17 21 23 22 22 20 16 15 17 39 62 92 83 69 74 78 86 93 75 109 123 111 95 107 121 121 106 121 131 136
65 29 29 33 30 24 24 21 23 25 17 29 50 75 64 78 63 68 89 92 95 110 120 115 108 103 117 111 114 111 113 114 122
57 48 45 43 38 39 30 27 30 29 15 32 54 57 83 75 73 82 121 123 101 149 124 115 109 107 95 90 90 93 99 104 105
72 56 44 45 44 39 42 41 37 43 45 51 62 69 91 79 83 85 101 99 120 147 114 103 105 102 95 82 74 79 80 78 83
87 69 54 60 37 53 55 57 65 77 71 72 75 83 93 78 78 84 113 115 147 140 102 95 95 98 85 79 71 71 71 73 71
90 86 84 63 59 62 83 86 95 92 88 78 74 80 99 79 78 76 110 107 133 122 100 91 88 92 90 81 74 69 67 71 73
79 118 111 118 107 130 112 115 106 101 84 89 69 73 91 90 85 82 85 102 108 104 97 91 88 86 82 77 72 71 67 69 72
135 159 160 160 172 177 163 158 134 127 100 99 79 68 69 89 88 84 80 85 93 83 84 81 84 82 83 81 80 77 75 79 81
210 216 208 208 204 173 180 161 164 138 112 78 74 70 70 72 92 89 87 77 76 79 80 77 81 75 80 90 84 80 86 89 91
267 248 213 217 224 199 172 167 136 129 107 75 63 57 58 59 81 96 87 66 69 63 45 55 91 93 95 80 87 86 87 91 95
317 265 224 243 262 231 193 164 155 116 97 72 60 41 44 47 52 63 64 74 80 75 66 83 74 79 65 66 81 87 84 85 103
347 286 270 262 268 227 189 187 149 139 108 87 76 67 49 39 25 44 67 65 66 70 84 72 60 63 59 62 72 74 76 93 90
363 329 307 294 306 271 214 214 189 154 131 93 84 86 68 36 37 54 63 87 96 92 82 70 65 56 59 53 73 66 76 82 88
417 375 380 359 326 280 217 200 194 174 127 107 78 84 62 56 53 77 103 125 121 127 121 100 72 65 69 71 68 57 57 61 58
477 417 464 417 356 302 238 217 201 167 118 103 97 90 82 68 73 88 103 154 175 139 110 93 93 86 91 82 66 50 55 56 65
493 490 469 417 342 301 264 280 237 192 144 103 86 91 91 107 114 93 113 143 121 111 126 102 104 122 116 104 83 56 62 65 65

GFSFLT1_con_3kmhel_042.txt.gz
Helicity
32 30 26 24 23 30 34 35 32 27 25 23 21 21 41 39 16 21 11 22 31 28 37 35 21 8 -1 4 24 7 -0 -1 8
25 24 19 17 17 18 18 22 26 26 25 25 26 27 46 23 37 33 7 15 52 48 60 67 64 70 43 7 14 5 -7 3 5
19 12 11 7 6 10 12 17 18 16 17 27 39 57 59 52 51 44 29 54 48 63 61 75 110 105 96 117 110 111 87 72 54
13 7 6 5 6 11 14 15 17 19 20 37 58 69 61 66 61 57 54 71 72 54 96 109 106 112 112 121 118 122 113 121 117
19 10 4 11 9 11 15 20 25 26 43 58 71 84 96 83 69 63 66 89 71 109 122 114 93 99 99 109 111 111 112 126 136
31 21 17 15 15 18 22 27 32 36 56 69 91 78 60 74 71 61 76 94 87 118 113 116 106 102 98 101 101 105 100 106 123
56 41 34 25 27 28 33 47 45 43 46 63 90 59 70 80 75 79 118 95 136 126 113 107 109 93 86 83 94 100 95 96 97
64 63 46 37 42 49 52 61 56 61 65 76 85 73 78 83 84 81 91 93 146 120 107 106 105 98 90 79 80 85 87 81 80
79 69 60 57 59 71 72 74 78 84 81 74 92 82 80 78 77 83 112 131 146 125 98 102 98 96 85 84 78 75 78 75 76
86 73 78 59 73 77 83 101 104 110 99 92 90 83 83 85 78 82 109 120 133 118 106 97 97 91 83 78 76 73 75 77 77
105 87 76 64 75 85 100 113 119 123 108 114 103 86 76 77 81 79 88 111 111 107 105 100 90 84 81 80 76 75 76 79 81
111 111 116 84 106 126 157 162 150 151 136 127 106 94 77 69 72 73 78 97 104 92 92 90 88 87 89 88 82 81 87 83 87
136 145 145 174 176 183 197 182 188 160 142 114 104 90 75 72 69 72 72 69 70 68 76 81 84 91 107 104 102 93 82 87 90
189 194 207 234 207 215 216 188 158 136 129 109 100 87 76 69 78 60 52 44 56 56 59 79 89 90 98 96 94 93 77 86 83
242 248 288 268 267 250 224 199 171 137 119 119 114 90 83 71 64 53 53 46 53 64 72 78 75 87 93 86 85 85 78 75 77
277 291 319 301 286 251 238 224 184 170 138 152 135 115 100 79 61 63 64 64 71 78 82 82 84 77 64 64 63 87 76 76 80
316 324 345 316 325 285 253 235 214 186 168 154 151 136 106 97 87 76 81 93 100 115 119 96 78 75 78 62 55 72 82 82 92
355 361 399 370 361 305 252 238 223 209 195 182 161 140 110 109 98 101 122 130 139 142 150 130 123 112 92 81 76 66 70 70 81
425 415 439 438 401 349 302 269 230 193 230 211 173 172 139 105 100 95 115 160 158 147 125 134 138 147 141 130 114 90 71 65 82
444 440 483 498 458 417 346 315 255 218 250 216 214 188 157 140 135 122 120 137 144 134 152 134 177 197 192 171 170 180 140 118 100

GFSFLT1_con_3kmhel_045.txt.gz
Helicity
32 32 37 33 25 28 31 30 26 24 27 32 39 30 30 22 3 13 -3 25 32 34 38 22 16 -4 2 16 23 1 -7 -8 2
28 23 17 13 16 17 19 20 19 21 27 33 38 24 23 23 29 15 3 7 72 64 70 73 57 64 61 33 27 12 1 3 -2
26 20 13 6 4 6 11 16 23 29 33 42 43 38 41 51 41 32 21 44 62 55 63 88 110 128 107 127 132 104 84 78 83
33 23 13 6 7 11 13 17 23 35 36 44 42 43 64 68 52 49 43 62 57 91 105 96 103 124 110 105 110 117 119 128 133
33 21 9 10 11 15 16 16 28 47 48 47 56 73 84 71 67 59 51 64 96 112 109 103 115 106 112 115 111 110 107 104 124
32 25 11 14 20 22 24 27 42 67 70 70 68 78 62 69 67 54 60 73 114 116 118 116 113 95 97 112 112 102 107 104 112
46 35 27 28 35 36 41 50 61 68 61 60 71 54 67 75 71 72 89 81 124 105 114 118 122 97 92 94 102 99 93 90 97
60 51 35 32 49 53 66 77 69 79 81 75 68 65 72 72 73 67 68 108 133 105 92 111 106 99 90 84 85 88 89 89 85
95 71 59 51 63 64 72 79 92 104 107 92 88 83 79 76 73 79 108 130 130 102 94 100 101 97 91 82 78 77 81 89 91
114 86 79 69 81 67 82 100 108 111 117 106 101 93 88 90 84 81 110 143 132 115 102 99 93 86 81 81 82 82 82 85 87
126 99 68 79 77 81 88 107 117 122 122 124 110 96 86 86 87 85 96 121 111 106 103 95 90 89 89 83 81 78 84 85 86
130 113 92 78 85 114 125 145 147 154 148 136 116 103 84 78 81 81 88 100 98 88 87 86 91 90 100 94 88 86 81 82 83
129 125 102 105 131 146 160 173 176 144 126 118 112 106 92 80 77 80 78 70 72 73 78 81 80 96 99 101 94 92 75 72 80
157 147 123 154 184 192 200 189 154 137 129 120 115 108 102 82 83 74 68 59 66 63 65 74 85 88 94 100 100 90 86 78 73
175 163 186 221 247 245 209 201 181 147 137 141 136 118 112 101 84 71 72 69 69 69 76 84 78 84 87 91 96 96 98 85 82
199 187 232 269 285 254 244 224 192 171 150 159 141 131 128 120 104 88 78 71 76 87 95 98 96 90 93 87 84 96 99 90 82
254 239 226 299 333 313 289 253 243 199 166 166 161 142 145 150 134 119 107 101 108 117 129 131 121 112 106 97 92 97 87 92 88
296 270 273 314 338 338 293 282 277 256 216 184 181 177 132 141 148 150 142 144 151 157 162 150 146 136 133 135 126 120 107 91 84
331 313 271 364 368 376 358 339 323 307 266 238 200 212 198 166 163 155 141 157 165 168 153 150 156 183 189 196 180 181 152 122 109
392 400 348 342 394 414 399 353 348 327 295 291 238 240 225 239 235 166 138 144 133 138 145 147 185 227 239 210 207 214 186 159 126

GFSFLT1_con_3kmhel_048.txt.gz
Helicity
41 42 27 43 25 22 29 31 27 26 31 27 26 19 18 15 8 7 19 33 -6 30 41 16 50 28 24 34 22 -1 -12 -4 3
34 35 38 11 9 15 17 21 21 22 23 19 15 16 20 20 13 6 5 23 52 63 78 90 107 113 70 80 58 49 53 48 0
38 26 22 14 9 11 14 20 25 26 23 22 21 23 34 35 25 18 17 42 42 57 81 100 107 106 113 117 113 112 116 101 114
40 34 27 23 19 19 25 29 26 30 30 28 27 49 57 48 37 33 25 33 70 86 87 89 93 99 95 103 109 104 108 131 138
28 21 22 22 24 26 31 34 38 46 44 47 48 62 69 55 49 40 26 78 90 85 93 103 104 104 111 106 102 106 106 117 129
28 20 5 14 25 32 33 46 51 64 66 65 74 76 54 58 56 42 48 86 98 96 109 121 111 91 100 102 96 92 94 92 109
45 32 21 23 25 28 34 53 65 64 52 59 71 60 63 69 68 69 66 102 108 94 105 117 115 95 90 92 89 85 86 85 87
63 55 41 43 46 44 59 76 67 63 63 70 70 73 74 71 69 63 77 121 128 94 91 95 98 87 76 75 83 86 86 83 79
76 72 66 60 68 63 66 75 83 90 91 81 83 80 75 70 71 75 88 125 121 83 77 84 86 79 76 76 77 78 80 83 84
98 91 92 83 80 75 75 88 95 97 101 97 93 87 85 80 79 86 124 150 111 89 82 83 78 74 71 74 75 74 81 86 84
122 119 111 105 89 89 85 92 108 105 99 110 104 101 94 89 90 93 107 128 110 98 91 77 72 70 67 69 70 70 74 76 81
139 131 128 104 103 117 118 121 132 136 127 126 116 103 93 91 92 96 107 116 112 92 84 80 72 71 84 73 69 65 57 58 67
156 150 124 116 133 139 142 155 163 150 127 117 113 103 94 85 86 95 99 99 102 95 90 79 75 89 85 80 80 72 63 54 59
181 169 134 150 159 163 190 192 172 154 139 125 118 105 93 85 88 93 95 89 89 89 93 90 95 93 91 92 88 80 77 68 65
207 182 153 178 194 200 214 222 204 161 152 152 137 115 102 94 92 93 95 89 95 94 100 98 100 106 88 84 84 83 87 83 73
208 196 180 201 231 233 218 261 227 206 187 193 146 129 120 114 118 119 110 104 103 112 114 109 109 96 97 94 84 82 92 87 83
219 238 199 214 258 256 274 311 281 232 188 187 183 141 140 142 154 147 127 121 136 139 141 132 127 120 105 99 105 99 91 88 92
255 251 287 260 263 251 283 302 313 315 220 202 196 172 130 156 163 154 140 163 171 173 171 167 157 138 130 133 126 126 133 121 107
320 287 289 305 306 295 303 345 344 288 229 210 213 231 209 188 163 174 165 178 178 175 183 178 167 155 149 160 174 184 179 171 150
342 325 324 319 354 340 328 333 359 369 322 327 316 298 264 266 282 197 189 167 166 170 168 174 163 175 184 180 185 203 202 181 149

GFSFLT1_con_3kmhel_051.txt.gz
Helicity
25 16 36 52 44 49 49 38 28 28 24 17 14 15 14 8 11 16 31 6 -4 39 21 18 29 38 26 31 8 -1 -7 -10 8
14 -2 21 10 13 21 21 21 23 20 16 12 11 16 20 14 11 15 33 52 59 72 84 104 117 104 103 97 80 60 55 43 25
16 14 13 -1 -1 7 13 26 26 21 17 14 15 24 26 20 22 25 30 27 56 76 90 102 95 109 111 108 108 102 113 129 133
15 10 9 7 6 14 22 27 25 20 20 24 34 44 40 32 26 27 26 60 78 74 79 89 90 93 103 108 109 96 111 133 156
26 14 11 16 19 25 24 26 29 25 24 28 49 54 51 40 33 30 42 70 73 69 90 90 93 88 96 95 106 104 98 106 134
29 22 11 18 28 33 25 37 42 52 52 55 58 47 38 40 40 38 62 72 75 73 88 87 88 80 84 84 85 86 83 88 100
42 38 33 31 43 49 40 56 61 48 43 49 54 44 48 48 51 52 56 77 82 74 84 92 75 68 70 71 72 71 70 69 73
58 60 53 54 61 59 58 55 47 49 46 49 51 56 57 58 60 62 57 108 98 72 76 80 72 63 64 66 67 66 68 72 73
68 70 70 71 72 80 72 65 62 60 57 57 62 66 68 68 69 71 71 131 101 75 74 75 69 63 61 62 64 65 69 69 69
75 74 83 80 90 89 90 79 77 75 74 71 72 81 86 84 84 86 126 153 102 78 79 71 62 54 57 54 53 60 65 66 68
90 82 84 93 90 92 94 88 87 90 88 96 95 99 96 93 91 97 111 141 116 98 83 66 62 60 53 51 49 50 52 58 62
102 99 100 100 109 107 113 109 105 110 109 119 118 106 96 89 96 104 110 117 121 100 83 76 71 67 68 55 51 48 41 39 44
113 118 110 115 134 130 128 133 131 125 124 127 118 111 102 93 91 95 100 106 107 104 96 79 80 84 77 68 65 53 50 42 37
130 125 114 131 149 144 144 155 146 145 139 129 123 113 106 94 90 91 102 105 110 110 106 110 110 100 86 76 69 59 54 49 44
148 134 125 142 165 165 172 170 174 155 158 151 136 124 111 101 93 91 108 112 116 109 104 104 106 106 92 81 74 68 59 52 49
182 169 143 151 165 182 170 204 187 207 210 198 152 123 116 105 100 114 126 131 125 119 115 108 107 102 107 95 81 73 70 58 55
227 197 173 163 187 178 206 246 281 239 217 214 184 118 112 121 132 142 140 147 149 126 138 133 136 128 117 102 100 95 88 85 80
260 237 239 211 220 239 241 270 288 310 249 244 202 161 111 123 151 149 159 162 173 155 166 169 165 153 145 127 125 138 136 119 114
274 256 271 263 272 258 287 308 296 324 347 284 209 251 179 152 112 161 173 179 173 183 201 206 186 173 167 167 161 155 138 128 118
265 251 275 300 323 278 323 342 307 312 329 366 369 323 296 284 262 226 219 224 218 205 230 238 200 186 174 165 170 168 157 149 132

GFSFLT1_con_3kmhel_054.txt.gz
Helicity
27 36 49 55 52 69 52 34 22 24 23 20 19 16 10 -19 22 32 29 20 20 23 10 8 42 20 18 5 -9 -8 -10 7 13
9 6 22 33 27 30 23 19 22 22 16 12 8 7 -7 1 15 29 43 56 69 80 87 91 94 103 103 86 89 82 78 51 14
-3 -4 1 -0 5 5 6 10 18 16 9 8 8 12 -6 2 21 26 35 49 76 72 72 86 100 96 92 88 94 99 119 123 116
10 -13 -20 -14 -10 -1 6 16 16 14 13 13 19 18 -14 10 26 25 36 58 67 63 69 73 78 80 86 91 92 96 115 135 146
20 15 -2 -4 -5 7 15 21 19 19 18 26 32 25 -6 25 22 27 59 62 66 67 68 71 70 77 87 96 89 84 93 116 128
43 35 31 16 24 25 29 45 39 46 50 45 34 -0 19 23 28 36 68 74 72 82 86 85 71 77 79 79 78 74 77 91 107
39 57 30 22 39 42 57 62 48 9 35 43 27 23 33 34 39 64 69 78 75 74 85 76 70 70 70 68 67 65 63 63 70
54 64 53 49 47 46 51 49 30 36 39 41 40 46 42 46 54 84 71 94 78 72 68 71 66 63 63 61 62 59 59 58 55
68 68 70 63 65 58 51 51 54 52 48 50 52 55 59 61 62 86 97 122 87 71 65 68 60 57 55 54 56 57 59 61 58
71 74 80 77 79 76 71 69 68 62 60 60 59 66 72 75 73 76 108 140 93 70 70 65 58 53 52 49 51 51 51 52 54
72 72 79 86 86 82 84 88 81 79 71 71 73 81 88 81 78 77 94 137 104 80 69 56 57 53 51 49 45 44 44 47 48
75 73 76 83 90 91 101 102 103 96 90 82 81 92 89 86 83 74 92 96 117 98 75 65 63 63 59 51 51 46 36 34 37
73 81 86 89 95 110 112 111 115 110 105 104 103 104 97 93 87 86 82 83 82 97 95 82 72 69 61 60 62 53 51 39 32
86 93 100 98 110 114 120 119 108 122 123 120 123 114 104 102 103 89 90 91 91 87 110 94 108 88 80 77 73 65 61 53 43
107 112 107 108 127 128 137 129 125 120 126 143 140 129 120 113 102 97 94 97 105 99 99 106 105 108 104 96 82 77 68 62 55
104 119 116 120 134 149 143 134 134 162 174 186 169 144 126 112 112 110 103 109 108 113 117 107 112 113 126 131 115 103 88 77 66
129 141 150 146 154 151 167 164 208 183 199 212 195 183 149 127 115 117 112 115 129 126 126 117 114 124 129 162 157 131 109 101 92
168 159 168 204 205 202 218 208 223 257 216 227 221 250 212 208 161 136 150 139 144 132 142 147 152 154 164 158 157 166 150 136 129
188 221 175 186 242 211 256 297 270 284 282 283 238 311 302 277 240 183 261 158 153 154 186 182 184 179 206 251 233 184 169 154 147
172 143 163 223 240 227 246 293 304 315 304 350 387 321 305 281 303 241 265 217 209 230 209 195 221 225 224 230 243 190 184 167 141

GFSFLT1_con_3kmhel_057.txt.gz
Helicity
49 61 52 66 75 63 46 29 21 18 18 19 15 4 -15 -23 23 34 30 26 12 18 38 32 20 21 19 -4 -14 -21 2 12 8
40 47 44 39 38 31 24 19 16 18 16 14 9 -7 -23 -23 27 7 38 49 69 89 96 98 94 101 84 85 87 73 63 29 26
31 31 25 21 16 14 12 10 15 17 15 13 9 -0 -33 1 23 53 30 61 64 73 74 97 97 93 86 79 97 102 117 115 101
26 23 15 11 4 5 7 13 17 16 16 16 11 -9 -33 -25 37 54 48 63 64 69 67 80 87 89 98 91 94 119 118 130 133
30 32 25 23 13 9 11 19 17 15 16 18 14 -6 -24 26 21 68 62 69 63 68 67 64 74 79 86 82 81 95 109 116 129
52 46 58 36 30 25 28 42 30 31 31 25 12 -8 2 26 38 81 83 69 72 73 79 61 67 72 72 72 70 70 81 88 93
41 79 62 47 49 46 65 55 38 9 33 29 8 7 32 40 48 102 82 75 75 73 68 66 61 60 62 62 63 67 67 71 72
55 67 67 68 73 64 68 56 38 28 35 49 26 44 40 50 66 116 88 84 75 70 68 65 58 58 59 61 60 58 55 54 54
49 55 57 55 80 39 63 65 50 61 55 54 52 56 54 61 77 123 115 102 87 74 66 66 63 59 57 53 52 52 51 51 49
53 55 63 54 70 52 81 81 81 73 70 74 67 67 66 73 94 139 132 122 94 76 74 63 58 58 53 52 56 52 54 53 50
72 72 67 67 69 68 83 96 93 91 93 91 78 74 79 87 103 132 115 116 98 78 72 59 53 50 50 48 53 58 61 58 52
82 79 84 80 83 77 87 95 110 116 116 106 96 92 84 97 104 111 130 96 99 85 71 63 60 53 56 55 58 58 57 54 51
101 124 114 107 102 105 105 121 141 131 137 125 122 109 108 104 109 121 137 119 77 98 80 74 66 74 65 59 62 60 62 58 49
95 116 126 112 135 163 122 145 157 150 152 131 142 133 134 121 120 128 124 129 113 91 131 104 85 91 77 79 73 67 69 65 55
124 127 115 123 150 189 166 163 175 162 162 139 168 159 150 146 144 131 136 130 125 131 157 135 142 117 101 99 89 85 79 72 63
148 173 129 141 160 171 190 150 178 185 203 216 210 196 165 156 159 150 164 156 145 143 166 134 128 138 122 126 123 112 102 87 71
181 187 172 170 183 151 202 149 219 218 243 309 232 221 199 170 176 184 182 170 173 148 170 170 158 164 149 156 161 150 137 123 107
187 182 189 190 218 221 223 233 228 265 292 276 313 267 281 248 204 219 208 189 199 180 188 201 194 193 210 213 190 168 184 166 142
149 173 167 200 218 212 239 288 304 319 318 304 250 295 374 308 274 234 229 234 208 205 254 236 253 260 260 277 264 206 222 204 191
100 118 200 212 218 216 221 255 289 372 329 369 374 314 364 380 344 314 301 273 282 300 261 257 221 249 276 311 289 277 235 221 226

GFSFLT1_con_3kmhel_060.txt.gz
Helicity
47 49 62 73 65 60 41 28 21 21 21 18 5 -21 -12 22 38 44 40 25 37 47 41 40 41 65 43 36 35 3 8 2 9
55 55 51 58 56 45 31 23 19 17 14 9 -8 -36 -10 -6 34 28 29 40 85 100 94 83 82 77 80 87 94 84 50 44 44
49 50 51 47 45 37 29 26 24 18 11 5 -5 -33 -19 23 33 43 23 43 56 72 81 86 87 85 75 74 93 110 129 116 122
45 46 44 43 39 37 33 29 24 18 13 4 -11 -26 -7 19 37 52 44 50 53 59 72 79 87 93 87 87 104 108 107 116 122
42 43 42 47 48 41 38 38 31 24 20 13 -5 -21 3 13 80 72 57 72 63 64 74 76 76 80 82 81 85 99 100 102 98
51 25 58 51 50 48 52 55 45 38 33 24 10 -7 15 15 124 70 82 85 83 80 74 68 69 72 73 76 78 84 84 89 88
41 79 69 58 56 51 70 67 56 42 39 30 13 15 37 71 117 74 94 94 90 87 76 71 68 67 66 69 70 67 65 67 73
103 83 65 67 66 78 88 76 54 34 42 60 34 50 65 73 124 95 99 106 93 79 75 69 66 64 64 65 62 62 63 61 66
83 93 75 64 85 72 90 90 66 42 64 69 62 98 79 99 138 123 140 123 101 83 75 68 67 63 63 59 57 55 60 59 56
106 98 92 65 104 67 77 86 66 93 89 72 85 110 91 97 139 161 160 140 113 88 81 71 69 67 64 62 58 57 58 56 51
120 77 117 89 102 80 68 91 138 135 117 104 106 115 103 106 167 181 168 166 135 98 86 71 67 68 66 66 59 57 59 57 54
143 109 121 132 115 119 127 158 172 166 154 147 136 141 132 136 160 170 181 159 140 112 95 80 72 67 69 68 63 62 61 60 60
153 163 128 145 143 137 158 181 199 195 196 192 165 161 154 143 140 187 194 188 155 124 107 90 84 77 72 69 71 77 78 75 70
169 160 160 137 180 188 183 169 216 227 234 222 187 186 181 160 155 165 199 178 172 156 134 125 102 92 84 78 83 82 86 87 80
219 201 172 184 161 215 258 249 222 249 228 229 199 219 203 182 174 182 178 215 218 190 183 172 136 140 103 110 105 94 86 84 83
220 262 234 220 210 204 274 267 254 250 272 277 253 289 229 213 190 188 199 222 228 251 248 223 208 193 136 135 132 114 98 93 87
228 257 268 250 246 234 291 286 328 301 313 360 353 301 285 224 221 225 213 232 261 252 266 234 225 199 198 200 160 136 115 101 96
247 251 254 245 239 234 273 304 332 328 369 364 393 294 291 264 248 241 265 271 295 276 269 286 244 223 250 230 166 143 145 144 148
130 178 250 237 221 201 225 256 346 377 405 428 336 343 316 287 257 245 248 263 281 295 296 301 297 299 348 280 194 169 193 191 189
163 119 129 177 234 245 224 238 278 350 397 451 496 347 316 349 349 300 278 271 281 308 299 318 338 332 408 362 242 210 198 225 219

GFSFLT1_con_3kmhel_063.txt.gz
Helicity
30 36 62 70 69 51 33 29 19 12 5 -8 -1 26 40 30 50 65 23 13 16 43 46 57 80 59 67 54 19 14 12 10 14
38 54 73 75 64 41 34 29 18 11 5 -15 -9 16 11 -2 16 25 40 51 83 78 75 72 78 81 77 86 85 62 56 49 49
42 44 51 55 51 45 41 34 25 14 2 -10 -16 13 21 26 19 14 14 51 64 75 77 76 81 82 74 79 103 124 123 125 123
49 51 49 50 52 47 43 38 28 19 5 -8 -6 5 27 43 41 40 23 50 60 60 71 78 81 84 80 95 104 110 120 124 132
60 49 54 61 60 58 52 44 35 29 20 7 11 28 65 52 68 51 46 65 70 72 75 74 78 81 80 82 94 98 99 105 101
47 46 57 63 65 66 68 59 50 41 33 21 19 33 52 73 70 69 82 92 94 79 82 82 82 81 78 77 82 81 81 86 87
39 39 45 52 57 61 73 75 71 65 45 31 25 39 70 95 92 76 103 113 112 105 83 78 75 74 76 80 78 74 72 76 75
58 65 63 55 55 50 79 79 77 73 73 60 57 57 78 80 104 95 111 126 135 110 94 86 82 80 79 78 76 70 70 73 72
96 88 82 83 79 77 76 72 71 75 74 84 90 83 102 110 119 112 121 126 133 119 100 88 88 84 80 77 78 71 70 66 69
118 89 90 80 91 96 88 84 78 66 81 77 93 101 117 144 139 133 129 134 133 118 100 92 89 85 80 77 73 73 69 66 63
135 122 109 92 95 86 100 99 92 79 94 109 117 124 127 158 157 144 139 142 140 122 105 92 86 80 81 80 73 70 71 67 64
172 143 138 108 117 91 99 79 118 110 118 127 130 153 144 172 177 173 175 158 146 129 109 97 83 79 78 80 70 70 72 74 68
175 172 154 139 137 150 131 140 172 193 204 185 156 164 179 183 201 205 197 190 167 135 118 109 87 77 76 76 71 72 73 77 77
180 188 181 179 168 166 173 173 223 226 225 217 195 182 192 195 238 221 216 199 187 168 127 135 105 94 77 71 76 79 93 91 90
184 190 193 210 218 181 200 218 228 240 253 251 227 213 195 215 221 249 239 225 210 197 179 176 152 129 93 77 84 88 96 106 103
190 240 229 248 226 210 211 230 265 259 316 345 295 264 203 207 215 226 264 255 239 225 212 212 202 175 136 102 103 98 96 96 85
226 194 230 265 269 248 242 267 323 342 389 391 367 302 290 243 234 244 248 270 307 260 253 247 241 228 228 173 130 119 127 104 77
165 209 227 232 272 279 272 277 305 292 385 419 416 325 325 278 269 257 282 284 326 340 323 282 262 252 256 210 182 205 143 114 83
90 139 175 212 219 219 220 263 280 302 312 345 364 434 323 258 241 218 233 283 279 300 338 300 283 237 259 247 226 199 190 133 106
91 77 102 145 172 184 220 242 237 298 297 378 427 414 461 406 316 232 254 266 294 311 288 291 258 244 236 270 240 193 204 232 153

GFSFLT1_con_3kmhel_066.txt.gz
Helicity
13 21 56 73 59 39 31 21 8 -1 10 15 24 25 33 41 37 12 8 -14 15 47 64 62 64 76 48 17 13 18 16 12 29
42 57 73 76 56 37 31 21 10 -3 3 17 15 21 27 20 31 38 40 38 78 72 70 72 73 75 88 80 77 44 29 45 59
48 57 66 63 47 40 36 26 10 -4 -2 21 22 25 33 16 27 30 48 71 67 70 71 66 68 78 86 98 115 131 137 139 131
35 35 34 42 47 48 44 33 18 4 -1 18 38 22 27 30 20 30 34 66 73 73 80 84 83 80 93 93 96 125 132 139 144
23 18 9 19 33 41 47 44 30 17 11 22 51 65 81 49 43 39 28 68 75 83 90 93 89 89 92 108 105 109 122 125 122
46 31 23 23 29 34 39 40 38 29 20 27 55 113 83 66 57 59 72 74 79 76 79 78 79 82 83 89 93 95 100 102 102
41 29 41 48 46 40 38 39 42 41 28 31 52 102 74 89 82 78 99 93 97 94 83 74 73 76 79 76 79 79 79 83 85
38 33 30 42 54 65 65 59 51 51 51 51 60 92 87 101 92 84 95 105 114 108 93 78 73 70 70 73 78 71 71 72 75
33 39 50 64 72 75 74 78 74 66 63 74 73 78 91 116 106 81 107 104 113 109 96 82 72 72 70 68 65 64 66 63 66
64 51 75 77 89 90 90 83 83 85 73 81 93 87 109 112 119 109 102 109 114 113 102 87 81 77 73 73 67 59 63 66 61
96 72 76 82 94 95 100 94 90 91 99 84 109 94 126 131 145 159 142 127 130 113 103 94 84 79 73 71 67 63 63 68 67
138 112 116 103 109 103 96 90 96 88 110 108 117 129 129 154 149 170 173 156 138 122 97 96 80 70 66 68 70 67 66 68 66
166 159 166 142 150 136 132 115 109 103 119 126 110 143 160 155 160 182 193 190 182 143 102 99 86 73 64 65 70 72 74 73 72
167 175 187 197 180 179 163 140 170 157 165 177 141 171 177 176 189 197 213 211 215 204 132 122 120 93 68 58 69 76 79 73 72
183 200 198 213 216 197 224 210 217 218 207 225 206 201 194 204 219 230 230 236 242 234 202 172 164 140 105 69 68 77 83 82 79
174 162 146 193 217 203 224 237 219 204 254 294 264 248 220 208 216 248 261 257 260 251 233 209 211 184 137 109 81 78 80 78 79
182 154 156 186 223 232 227 272 274 244 305 337 351 302 281 267 258 292 299 283 308 289 269 245 225 214 208 185 119 89 86 67 63
159 167 175 163 204 215 210 234 279 225 304 333 321 294 297 273 236 224 278 301 323 310 322 303 266 235 222 198 186 122 127 71 44
126 129 145 157 182 180 187 207 239 250 243 317 288 366 352 295 262 222 193 205 244 266 320 305 307 286 258 227 219 209 142 136 105
134 122 126 154 172 172 172 181 209 223 205 285 296 273 353 411 363 245 294 281 206 210 234 301 313 327 343 314 267 256 178 123 171

GFSFLT1_con_3kmhel_069.txt.gz
Helicity
3 17 69 58 37 16 11 12 17 17 14 10 6 5 18 28 6 -8 -18 -23 22 49 37 56 57 31 21 12 18 16 15 25 29
4 43 55 49 27 17 15 14 22 13 7 7 9 18 21 0 -1 9 14 9 50 52 58 56 60 78 60 60 41 35 43 59 73
27 28 33 26 16 14 16 18 23 22 11 14 12 39 32 6 22 30 39 56 48 51 57 58 57 60 73 97 103 106 114 121 120
26 31 20 8 3 3 5 10 13 17 15 21 20 22 34 30 20 33 41 63 62 62 63 62 56 58 75 80 79 102 116 129 126
50 41 29 23 6 -4 -3 -3 3 2 12 29 27 13 60 48 37 39 37 64 66 71 70 71 67 62 72 82 76 74 90 98 97
39 39 41 46 42 33 16 3 -5 -7 5 36 45 45 65 58 52 46 46 68 75 77 79 73 70 64 65 70 75 76 79 73 67
50 44 40 42 45 38 33 34 35 30 33 41 83 78 59 55 63 57 56 70 77 76 86 82 74 65 65 68 71 68 59 65 64
59 50 44 51 46 49 39 41 43 43 50 57 96 96 80 77 79 66 61 69 74 82 74 72 68 67 68 66 65 62 60 56 54
53 47 43 50 60 62 60 59 56 54 58 66 81 98 93 95 96 79 64 62 77 80 70 72 68 66 65 65 63 60 58 60 54
61 41 40 49 67 74 75 71 68 63 60 68 79 96 97 99 108 102 71 65 74 78 70 65 67 72 70 66 62 57 63 60 53
71 61 59 57 75 80 87 87 85 76 80 66 71 62 94 98 102 111 99 73 90 90 75 66 63 65 72 72 70 65 59 61 61
89 91 90 78 88 85 92 81 81 79 83 71 67 74 73 104 115 133 130 118 104 109 74 67 62 61 62 67 76 70 62 67 61
125 120 116 119 124 120 125 117 112 113 119 123 95 105 102 104 129 158 161 160 164 135 108 89 68 59 52 49 62 67 71 70 72
138 155 152 170 162 158 156 152 165 151 149 149 138 146 152 140 140 169 179 192 205 212 159 121 109 91 64 48 52 68 75 79 74
167 157 162 196 191 184 205 186 201 192 176 175 161 173 180 185 176 185 197 212 232 251 237 200 168 130 104 63 48 61 71 78 83
169 180 182 187 189 175 204 231 216 191 226 223 185 175 174 195 218 226 213 217 257 261 257 236 220 193 136 107 76 59 64 70 85
148 146 153 177 198 192 213 258 254 238 247 253 262 202 190 220 230 266 264 248 302 306 271 258 244 224 200 181 117 97 76 75 70
146 155 158 155 179 185 192 233 245 198 230 255 237 230 189 195 197 175 214 222 283 284 261 243 234 245 239 215 176 138 140 90 93
131 141 164 173 190 187 174 183 202 224 178 225 210 258 265 215 165 199 214 201 171 189 216 228 200 178 253 205 266 239 201 122 114
192 173 147 151 159 153 149 140 149 168 180 211 205 186 194 227 219 158 201 184 174 162 187 201 225 263 228 277 282 181 161 208 214

GFSFLT1_con_3kmhel_072.txt.gz
Helicity
-9 12 29 12 -1 -3 -2 5 6 -5 -23 -26 -22 -15 -4 -2 -25 -38 -38 -28 25 32 39 36 31 19 11 6 10 7 1 13 25
-9 40 25 8 -2 -2 2 6 7 -1 -12 -26 -22 -6 1 -13 -15 -12 -21 -11 38 41 46 31 40 47 42 23 19 22 32 46 65
17 20 8 -7 -10 -6 0 4 3 -3 -9 -7 -9 11 5 -10 -5 2 10 35 34 47 57 44 45 42 52 70 75 79 74 67 90
20 16 7 -6 -10 -13 -11 -4 -7 -10 -12 -9 -2 12 18 9 0 3 8 20 29 39 49 54 50 40 56 71 70 88 92 106 114
46 53 28 18 19 22 18 19 6 -6 -18 -17 -5 0 35 29 21 16 12 31 37 40 43 45 45 39 55 70 83 60 69 80 82
41 31 20 22 26 23 26 28 31 40 49 44 41 36 53 54 44 39 16 36 47 48 44 46 47 42 42 55 68 76 70 68 71
46 39 34 33 36 33 34 35 41 48 55 51 50 57 63 57 51 50 30 33 50 56 49 51 51 48 46 48 53 58 60 65 67
50 42 41 41 44 49 46 43 50 48 52 62 59 68 71 58 59 56 41 28 40 61 56 47 49 51 47 48 52 54 53 57 55
47 46 44 44 52 52 54 56 49 46 53 58 66 65 72 64 64 62 46 38 29 52 56 49 44 45 49 49 53 54 53 52 48
53 45 46 46 55 61 61 64 58 52 55 57 67 68 68 69 72 77 54 47 43 42 56 52 47 43 48 48 48 48 53 53 51
63 53 49 48 64 71 76 75 69 62 65 47 55 63 73 72 76 85 80 60 60 51 51 50 45 43 42 46 56 53 53 52 55
69 70 66 67 77 77 75 69 77 76 74 67 56 66 67 82 81 90 99 97 80 76 63 59 56 48 42 38 49 55 58 62 62
99 90 79 86 100 106 104 107 101 104 116 112 92 90 89 92 103 117 118 121 123 113 90 79 70 61 52 44 45 66 65 64 66
127 124 113 111 119 130 140 138 150 137 138 139 128 125 116 113 124 126 137 146 146 160 132 111 101 96 69 51 42 45 71 68 76
134 135 140 153 145 137 159 160 182 174 152 155 146 140 146 144 148 140 179 188 192 198 185 171 143 112 107 63 40 32 50 70 65
112 125 129 160 165 153 177 191 177 175 213 205 168 165 156 165 176 174 184 183 223 248 245 225 193 170 116 118 84 55 41 65 58
127 127 134 156 170 160 173 215 211 203 225 223 232 162 138 126 116 127 143 141 177 187 212 206 190 187 169 162 128 106 67 52 87
131 135 148 157 183 167 174 193 187 182 198 217 197 173 149 148 143 132 111 116 141 152 175 181 204 170 179 177 162 141 126 105 109
183 158 145 147 184 185 168 179 186 201 161 186 146 179 219 175 158 172 153 153 127 136 158 147 146 173 178 162 184 205 205 117 108
192 185 176 147 151 159 159 162 164 175 176 185 172 154 178 172 162 122 123 139 133 121 130 144 155 165 201 235 227 161 134 83 156

GFSFLT1_con_3kmhel_075.txt.gz
Helicity
-28 15 4 -9 -14 -15 -11 -12 -21 -30 -33 -29 -27 -20 -18 -30 -35 -25 -35 -9 19 19 20 25 27 11 -2 3 7 6 14 23 44
-26 13 1 -10 -12 -12 -5 -7 -17 -27 -21 -20 -12 -5 -11 -12 -8 -18 -19 -3 12 9 14 10 31 36 36 23 20 28 41 51 66
5 2 -7 -18 -26 -23 -22 -20 -19 -24 -20 -15 -3 -2 -3 -0 3 -2 -1 -2 5 13 18 21 15 14 29 50 63 80 82 78 86
16 8 -1 -0 -3 -2 3 8 8 5 4 -1 8 7 11 3 6 6 7 9 21 27 27 27 23 19 22 38 51 76 94 108 113
23 26 6 2 6 7 7 13 17 20 25 27 26 20 32 20 19 21 24 20 32 34 30 26 23 24 31 33 39 47 52 63 69
35 24 25 25 27 26 24 28 37 46 39 36 40 35 31 35 30 29 23 20 32 38 36 33 33 29 28 35 45 50 60 63 47
37 34 33 29 30 33 33 36 49 56 46 43 48 45 45 41 39 37 25 20 31 45 38 34 40 39 34 31 34 40 46 52 54
44 43 39 35 35 36 37 41 46 55 56 51 48 49 52 52 47 43 33 26 15 47 48 37 32 37 40 41 42 42 39 44 45
43 44 41 37 37 37 38 43 46 53 60 56 52 53 52 54 54 47 36 30 25 26 56 44 38 34 37 41 49 52 51 52 48
41 39 40 38 39 44 45 46 47 55 60 57 57 57 55 50 58 57 53 41 40 32 38 52 40 37 34 37 46 50 54 52 54
43 41 40 39 46 47 52 53 52 53 57 53 61 57 59 61 61 66 57 52 49 47 37 40 44 38 35 34 43 48 44 49 53
50 49 44 46 54 50 56 59 61 63 69 61 61 68 63 67 65 71 75 69 62 55 48 40 46 50 40 33 29 43 42 42 54
61 63 59 59 63 68 73 80 81 87 92 87 85 83 77 66 71 76 81 82 83 82 67 53 46 54 54 39 34 35 60 57 47
72 74 69 73 85 93 95 94 100 103 107 105 91 87 88 85 94 76 80 88 100 103 98 98 76 70 62 53 42 41 64 66 63
77 77 74 83 92 99 107 103 109 108 102 110 107 102 101 108 110 106 105 91 87 98 105 117 113 92 68 61 52 46 48 89 79
78 84 80 92 93 84 93 111 108 111 122 132 117 119 126 136 124 115 101 89 76 79 86 103 111 111 92 81 69 58 53 60 109
98 102 106 104 110 102 114 131 156 152 153 169 185 157 115 111 96 92 91 67 102 81 82 94 97 105 120 112 102 86 53 58 69
142 124 113 109 121 118 115 136 151 158 164 135 178 183 142 140 138 127 116 96 84 83 67 73 80 90 116 98 92 102 100 75 50
194 181 152 133 141 142 135 151 153 179 172 176 140 152 210 169 154 160 136 121 91 93 88 82 87 89 92 107 108 122 103 77 45
206 195 186 167 145 138 138 152 168 175 179 176 181 153 168 158 165 166 158 138 110 115 101 100 108 111 105 97 98 90 93 71 62

GFSFLT1_con_3kmhel_078.txt.gz
Helicity
-0 -13 -22 -26 -25 -16 -13 -16 -18 -12 -17 -18 -18 -15 -24 -28 -12 -9 -2 8 8 6 1 9 1 9 3 -0 3 15 34 45 53
6 -15 -25 -21 -16 -11 -12 -19 -15 -18 -23 -12 -5 -9 -29 -0 -0 -3 4 1 -4 8 2 3 12 19 33 16 20 34 47 62 66
1 -5 -14 -17 -18 -11 -6 -9 -10 -11 -11 -1 3 -1 -26 7 7 -2 -5 -1 5 10 6 5 7 10 15 34 46 52 53 66 63
13 4 -9 -11 -10 -8 -5 -3 -4 -8 -1 6 13 13 -7 8 14 10 13 16 18 19 19 17 14 13 11 18 35 56 59 62 63
22 16 1 4 5 5 8 11 15 17 20 19 21 23 17 24 27 28 39 23 28 28 26 25 22 22 24 31 37 42 50 48 62
20 23 25 23 24 21 23 28 30 33 37 35 32 21 28 34 39 39 63 30 32 37 34 31 31 32 30 32 40 50 58 62 59
25 35 32 31 31 31 36 38 44 26 28 40 40 30 40 42 47 49 66 34 27 46 42 35 32 34 36 33 36 42 49 57 57
34 35 32 28 40 29 39 48 34 39 38 41 38 39 41 44 49 62 62 41 27 34 57 47 35 31 32 34 37 41 43 50 50
41 36 36 34 36 36 40 42 43 43 43 43 43 46 46 49 56 60 71 47 36 26 43 59 49 40 33 30 35 45 49 54 55
42 37 36 38 42 42 43 45 47 45 45 47 50 51 53 53 60 58 100 64 47 36 31 43 59 49 39 33 35 40 46 51 58
50 47 45 46 49 48 47 50 54 53 51 50 51 54 62 63 64 68 68 91 61 50 42 34 35 52 47 39 39 48 41 47 53
47 48 56 58 56 52 56 57 59 60 59 56 65 72 69 72 70 69 71 82 91 67 54 46 37 39 48 42 36 51 62 48 47
54 58 64 64 66 66 66 68 69 71 75 76 88 91 87 78 73 81 87 90 81 95 77 56 56 50 52 51 42 52 78 66 68
56 63 64 67 72 75 76 78 80 87 88 87 94 96 99 94 94 87 88 86 80 76 90 101 80 74 71 56 52 59 76 99 73
69 67 62 68 78 80 82 80 94 90 100 105 101 92 98 92 100 89 96 103 100 91 85 84 88 93 82 72 56 49 55 71 106
83 84 79 81 83 76 88 101 117 119 109 130 112 105 98 103 106 110 84 87 97 88 88 90 83 76 99 85 73 68 57 58 86
99 95 95 98 104 100 108 123 135 140 157 172 194 141 120 102 102 88 104 78 93 89 72 69 76 85 103 113 124 86 72 55 53
150 136 137 132 138 134 137 142 138 163 160 133 173 172 135 170 143 104 103 101 110 95 70 66 79 96 111 119 121 125 105 75 49
168 164 151 130 138 126 123 139 165 168 173 188 153 140 196 169 173 168 128 107 92 90 78 76 92 88 86 103 107 127 127 119 79
195 191 176 168 148 127 118 119 136 171 172 176 192 163 166 149 172 156 118 126 100 90 86 93 94 102 93 93 113 147 147 125 100

GFSFLT1_con_3kmhel_081.txt.gz
Helicity
-10 -13 -12 -14 -11 -14 -15 -16 -11 -14 -19 -16 -10 -20 -29 -29 -9 24 8 -1 1 2 6 19 19 28 16 10 15 34 39 43 51
-10 -16 -16 -16 -15 -10 -11 -14 -14 -14 -10 -9 -17 -30 -16 -14 6 16 15 8 12 11 16 15 8 18 37 49 46 48 54 57 47
-6 -16 -24 -25 -25 -22 -21 -21 -20 -16 -9 -8 -13 -36 -58 -3 11 13 34 17 24 23 23 20 19 19 29 41 57 67 60 63 50
-3 -4 -7 -10 -10 -11 -10 -7 -4 4 11 12 6 -13 -25 -2 28 25 54 32 38 35 31 28 27 27 27 30 38 46 50 55 43
25 16 15 10 10 7 7 13 17 17 24 27 20 12 2 18 37 48 61 51 51 46 44 40 37 33 32 35 39 42 42 51 53
22 44 39 30 29 27 24 27 32 27 34 38 27 17 28 39 48 66 84 61 60 58 55 54 49 46 41 42 45 52 56 57 63
63 74 57 46 42 37 34 34 36 24 31 60 50 35 45 47 60 99 100 74 58 67 65 61 56 54 53 53 52 58 62 64 64
48 58 49 40 41 33 39 48 30 36 39 41 35 48 50 50 68 115 111 80 62 53 71 68 61 57 56 53 53 56 56 57 57
60 52 54 51 50 47 49 39 45 47 41 38 43 52 54 54 71 94 123 91 67 53 48 66 67 60 56 51 52 57 56 58 60
66 65 58 57 59 54 51 50 50 48 46 50 49 46 50 55 73 75 125 109 83 62 51 43 55 63 59 55 55 60 54 54 58
69 65 62 62 61 56 55 56 58 58 57 55 54 55 59 65 72 84 102 112 99 77 65 51 43 47 62 63 55 59 65 53 57
68 61 67 66 65 63 67 65 65 64 65 62 65 69 66 79 77 90 95 112 107 105 76 58 56 55 58 63 59 70 71 80 68
64 67 71 71 80 75 71 69 70 71 76 79 83 99 89 79 84 92 100 107 101 121 98 87 70 68 66 62 68 74 77 90 78
70 77 76 78 84 80 81 78 77 86 92 105 107 106 103 105 101 104 102 110 128 130 137 118 106 96 74 68 72 73 78 117 109
85 83 80 89 99 93 92 87 90 99 103 120 134 121 106 116 124 106 119 120 129 167 120 104 87 88 76 76 69 64 60 79 92
88 95 96 104 105 94 96 109 117 116 114 118 124 106 89 100 119 106 105 96 180 148 86 91 90 97 67 59 76 76 60 53 67
117 117 131 148 145 121 116 130 146 143 142 188 167 164 116 116 146 162 145 144 124 115 97 81 79 80 85 142 123 112 122 98 55
176 171 169 172 173 158 158 162 168 173 172 155 174 180 175 180 179 153 129 134 119 122 90 89 79 97 113 122 152 187 164 144 122
150 147 146 140 143 153 152 151 152 168 179 179 198 159 197 208 184 168 151 127 89 99 80 82 127 135 137 139 179 155 143 134 126
155 159 158 162 172 154 130 130 135 140 142 152 171 158 172 184 209 194 161 156 116 94 135 140 174 164 120 117 114 132 142 140 151

GFSFLT1_con_3kmhel_084.txt.gz
Helicity
-8 -9 -6 -4 -3 1 4 -1 -9 -10 -11 -15 -31 -39 -32 -40 -3 8 24 1 13 20 23 19 23 29 49 53 52 55 56 56 52
-11 -11 -8 -2 -3 -5 -7 -14 -15 -14 -13 -15 -22 -20 -28 -26 14 20 17 15 26 29 31 30 29 35 49 62 65 63 66 61 53
-15 -16 -13 -8 -6 -14 -15 -18 -18 -9 -2 -11 -20 -19 -7 16 39 45 30 34 38 41 43 44 45 50 52 56 63 70 70 59 46
1 4 6 6 8 8 -0 3 3 9 15 14 -0 -3 19 43 38 81 43 50 52 53 56 57 57 58 64 60 58 60 61 54 53
18 22 23 24 25 28 25 24 23 28 29 32 21 11 -3 18 48 96 70 66 60 60 62 64 66 73 75 74 68 64 62 60 63
32 43 41 41 42 40 42 41 36 35 38 48 43 30 36 50 73 105 105 79 73 73 70 70 73 76 76 76 73 70 71 68 65
75 67 64 54 52 47 45 46 42 30 30 49 40 45 51 47 77 110 119 96 72 73 76 76 77 77 76 73 74 74 75 71 69
72 61 58 52 41 45 38 34 24 26 38 63 50 55 54 52 68 126 122 104 80 62 72 75 74 72 73 72 73 74 74 74 73
49 80 58 48 56 37 55 57 44 41 56 54 43 45 66 58 60 109 122 111 90 73 61 72 76 70 68 68 72 73 70 66 67
62 67 73 63 60 64 62 63 50 58 48 55 70 61 53 59 69 110 128 110 93 78 62 58 62 70 71 73 74 73 68 59 57
80 78 67 69 70 56 63 59 65 59 64 56 59 63 71 65 76 99 128 118 96 85 67 60 60 59 67 78 74 61 70 68 48
75 52 65 65 64 61 69 70 74 71 65 65 66 66 71 80 91 108 139 143 117 96 80 76 75 74 61 61 83 73 55 56 58
62 62 60 61 82 93 86 81 81 83 83 82 76 95 106 97 85 95 124 142 162 121 96 87 80 72 61 56 57 64 88 68 65
72 68 67 74 96 107 106 92 102 101 95 98 109 118 116 104 110 113 114 125 149 166 160 98 79 68 58 49 37 40 56 89 91
93 83 82 84 100 109 101 98 101 116 116 113 116 107 118 121 120 109 107 112 92 173 198 140 82 62 58 49 49 55 39 41 66
118 113 91 111 121 115 116 129 140 145 140 150 141 136 122 118 111 120 109 85 163 166 150 117 107 110 66 73 78 102 96 82 57
170 163 156 157 156 155 152 160 155 162 154 174 169 156 136 102 108 154 221 183 179 162 140 121 125 125 136 180 230 179 150 138 122
173 166 156 151 148 142 150 160 168 162 167 160 185 187 172 161 142 199 194 203 175 115 101 93 179 219 164 156 146 151 124 105 107
177 182 185 171 152 146 155 169 164 176 164 161 159 174 184 177 165 192 180 159 128 97 189 212 213 179 130 132 138 120 106 94 106
158 162 164 174 175 177 169 158 157 155 162 153 140 150 153 162 191 179 161 188 158 186 197 171 162 162 107 94 101 115 102 100 99

GFSFLT1_con_3kmhel_087.txt.gz
Helicity
-1 1 2 -2 -5 2 -1 -7 -11 -15 -22 -33 -27 -41 -46 -30 2 -4 9 2 19 22 27 31 41 49 58 65 68 72 67 62 59
-5 -6 -9 -13 -12 -10 -8 -8 -13 -12 -17 -7 -1 2 -17 41 21 14 19 16 32 36 37 40 49 58 67 81 87 83 79 68 59
-13 -10 -12 -12 -7 -6 2 9 10 9 1 7 13 12 39 47 47 36 32 40 44 46 51 53 59 63 66 70 71 75 72 57 55
-0 -2 9 6 13 13 19 24 28 27 19 8 11 27 32 53 50 65 43 57 57 55 56 58 65 65 66 68 68 68 67 63 60
11 6 18 24 32 38 38 39 43 40 38 33 26 22 22 36 67 80 59 77 70 67 64 62 66 67 67 70 72 72 70 65 62
20 22 32 40 43 50 52 51 49 45 38 38 35 29 39 41 67 80 94 86 81 76 72 68 67 68 69 70 72 70 70 69 68
29 38 44 47 49 49 52 51 48 43 35 28 26 38 39 49 69 83 104 90 82 80 77 72 67 69 71 69 68 67 67 64 64
56 45 42 38 38 33 31 27 25 26 33 31 31 38 40 45 66 83 100 87 82 77 74 68 66 69 72 74 73 70 63 61 61
65 53 41 34 35 28 32 34 31 18 16 48 49 47 48 46 60 74 87 86 78 72 68 62 64 66 69 73 72 69 61 54 53
61 46 47 38 34 46 34 32 39 42 38 42 43 40 48 47 50 78 86 95 85 71 65 57 53 63 79 77 72 63 58 50 44
46 51 48 41 49 46 51 53 46 48 53 48 53 52 54 55 65 90 106 108 97 82 64 60 59 62 60 78 90 79 60 51 38
67 62 43 41 48 48 51 49 67 63 65 63 63 64 63 65 75 92 118 123 104 102 64 59 54 45 48 40 51 76 76 60 50
69 55 46 40 51 69 78 74 69 70 76 82 75 74 77 78 85 101 106 125 132 124 96 88 57 32 32 17 10 16 55 67 68
66 54 46 55 77 86 87 83 96 96 89 85 89 92 98 96 102 103 97 98 115 143 134 104 81 48 43 30 38 44 48 52 50
78 70 67 76 86 91 97 89 95 108 109 108 111 100 91 103 103 94 90 97 104 110 147 135 125 117 131 126 98 83 74 85 79
93 88 79 105 104 117 131 132 129 126 128 128 123 136 114 105 94 92 106 147 196 171 148 130 123 182 243 203 169 143 117 99 98
181 151 144 132 132 150 150 153 140 138 134 150 145 138 136 121 112 109 153 195 188 164 138 211 230 195 159 147 161 130 114 101 90
162 170 159 145 133 123 131 139 147 149 154 148 174 162 131 146 153 153 172 178 173 187 210 198 206 168 141 140 118 136 107 90 78
163 162 171 164 157 160 161 175 174 182 161 166 162 191 188 178 162 156 178 189 187 205 244 262 209 192 144 107 107 100 99 72 64
173 172 175 185 185 187 189 183 176 181 176 165 153 149 159 159 190 191 142 187 273 279 299 270 259 199 131 60 69 105 90 73 66

GFSFLT1_con_3kmhel_090.txt.gz
Helicity
-5 -7 -5 -7 -7 -18 -20 -27 -35 -42 -42 -37 -34 -38 17 17 -3 2 4 3 23 27 26 29 36 42 51 58 63 63 61 49 44
-15 -18 -19 -18 -21 -25 -19 -15 -14 -10 -3 1 -8 -17 46 31 16 18 15 15 34 35 36 37 40 43 45 58 63 62 57 39 38
-27 -24 -23 -19 -17 -17 -3 7 16 25 27 24 18 37 46 46 35 32 24 37 42 42 43 42 43 42 45 48 54 56 53 45 40
-22 -19 -13 -10 -3 3 10 24 31 32 34 38 36 50 49 48 35 45 27 46 48 47 44 43 45 46 48 51 49 49 49 44 42
-5 -9 -5 2 10 17 23 31 37 41 39 32 34 34 71 48 56 52 32 58 62 59 52 50 49 48 49 52 52 52 52 49 48
3 5 18 18 23 27 30 37 43 44 37 31 31 26 43 45 48 53 46 67 69 68 61 54 51 51 54 51 49 51 52 51 48
7 12 27 28 28 32 32 35 35 35 30 31 28 41 35 39 51 56 53 70 71 74 66 60 56 56 59 56 53 52 51 51 48
21 24 19 21 23 18 19 13 15 18 25 28 25 29 27 43 39 54 63 59 63 62 67 63 59 59 59 61 61 60 53 50 46
35 33 24 20 15 10 8 14 13 17 20 18 18 25 31 40 45 43 64 59 55 56 53 57 63 61 61 62 62 66 56 49 44
44 32 28 22 20 16 13 16 15 12 20 33 40 39 40 37 50 59 63 68 59 56 57 54 52 54 60 69 70 59 50 48 41
42 45 33 22 32 24 24 30 32 33 39 38 46 45 48 50 55 67 73 76 71 69 68 53 41 41 30 58 60 78 65 54 49
64 53 47 34 36 38 44 46 47 47 52 45 48 56 54 61 68 70 81 95 85 85 64 66 46 18 20 17 11 18 58 67 61
78 65 53 48 52 53 56 60 60 57 58 60 59 68 66 61 68 82 94 104 118 103 87 84 62 29 17 4 14 22 55 37 48
83 69 50 64 67 69 75 68 75 76 73 77 78 84 84 88 91 78 91 99 106 116 86 92 106 117 96 71 77 78 64 74 56
78 64 57 66 78 75 82 82 86 85 90 90 86 95 100 88 91 94 99 106 124 111 113 170 197 200 178 170 143 111 89 78 75
69 69 65 64 79 82 97 111 105 104 116 99 86 93 94 99 94 80 90 110 160 229 181 201 176 194 214 179 145 122 98 80 77
85 83 106 103 112 121 125 128 124 126 122 102 99 97 96 118 122 120 109 139 173 227 209 175 188 164 131 153 171 119 89 77 79
159 145 141 131 126 110 114 122 125 113 131 149 155 122 115 104 134 154 130 164 202 236 273 269 253 221 168 124 112 111 87 76 65
181 139 180 152 143 150 138 152 158 165 142 141 173 179 185 142 149 147 157 220 232 278 297 307 281 267 190 160 118 100 73 59 57
209 171 164 164 171 169 170 178 179 175 158 150 154 170 167 163 181 176 157 248 296 321 322 314 281 222 202 152 78 87 57 56 56

GFSFLT1_con_3kmhel_093.txt.gz
Helicity
-10 -12 -21 -34 -35 -39 -41 -39 -38 -28 -24 -15 -8 17 9 0 -8 -7 -3 -6 15 19 22 20 18 31 38 37 37 36 33 23 22
-19 -25 -30 -48 -51 -48 -45 -37 -25 -16 -15 -14 -1 47 32 9 6 5 3 8 26 27 29 29 29 24 22 25 25 26 25 28 25
-34 -35 -35 -38 -34 -37 -29 -31 -11 -2 13 11 20 46 35 24 18 15 10 25 33 33 34 33 31 31 32 32 33 33 33 30 27
-34 -32 -26 -18 -12 -11 -9 -8 2 13 18 36 35 36 46 36 25 25 15 30 39 38 37 35 36 37 37 34 34 31 30 32 32
-34 -31 -23 -3 7 5 3 8 11 12 15 24 50 41 43 32 36 33 22 33 45 47 45 42 41 42 40 40 37 36 35 34 33
-24 -20 -4 8 13 16 11 10 8 10 14 16 28 52 32 24 34 39 26 31 50 53 53 50 49 47 43 44 44 41 41 39 32
-9 -2 15 16 19 17 19 12 11 10 13 17 25 32 26 25 26 39 39 33 46 56 56 57 55 53 53 51 52 50 45 40 33
11 15 14 20 22 21 15 13 13 11 15 16 15 16 24 31 31 32 40 41 37 54 61 58 57 57 56 57 59 59 53 41 34
20 22 21 25 25 18 18 15 12 11 14 18 10 17 25 37 41 38 36 46 44 46 53 59 64 58 54 57 65 66 49 34 30
37 27 24 16 22 19 16 15 15 16 14 15 24 25 34 41 52 55 44 56 58 50 47 55 47 31 42 45 59 55 51 48 43
51 38 26 24 22 20 19 22 24 24 28 28 37 37 43 46 56 63 59 55 66 64 49 55 52 45 33 16 17 34 53 68 60
61 51 38 35 35 26 32 32 41 39 43 37 42 47 48 48 63 71 69 70 65 71 56 54 45 20 31 32 44 56 57 24 68
77 68 52 47 54 55 56 55 51 44 43 46 45 55 63 63 61 67 81 89 100 100 65 62 51 53 49 47 40 68 65 82 64
97 91 69 60 64 62 65 64 65 55 51 55 61 68 72 68 77 79 84 90 96 96 100 96 117 127 115 111 106 80 70 68 71
102 99 76 74 71 58 67 60 69 62 60 57 58 67 61 70 75 79 86 91 87 103 129 163 177 227 199 151 145 122 93 76 64
94 91 77 62 55 59 61 68 58 65 76 70 70 69 58 59 76 74 74 85 114 156 196 190 183 170 183 137 115 117 105 90 67
106 88 66 69 80 74 81 78 78 84 89 84 69 66 73 94 84 100 126 148 164 221 245 265 259 231 194 171 138 107 80 57 55
125 88 77 94 109 107 114 99 88 82 114 135 139 107 78 103 101 130 140 152 194 221 250 283 279 236 216 201 196 120 91 65 59
152 131 119 153 136 149 126 120 124 121 103 132 165 201 185 125 110 144 171 191 228 255 271 278 277 240 229 217 180 132 51 31 37
292 268 188 131 110 115 132 138 114 123 123 137 147 163 166 174 182 139 186 245 261 275 293 270 255 237 205 187 166 98 48 31 44

GFSFLT1_con_3kmhel_096.txt.gz
Helicity
-14 -15 -23 -30 -39 -45 -41 -36 -31 -30 -22 -21 -5 -5 -2 -7 -16 -13 -10 -10 14 13 8 -2 16 25 33 27 22 18 10 11 8
-23 -36 -45 -45 -47 -40 -37 -26 -23 -16 -12 -11 13 9 8 -8 -10 -9 -7 -1 22 24 24 18 17 21 22 15 17 19 21 19 16
-40 -51 -57 -51 -45 -31 -21 -11 -6 1 5 10 28 16 16 5 3 -6 -4 18 28 29 31 28 27 29 29 26 24 24 23 25 23
-47 -42 -40 -36 -26 -17 -10 5 11 18 21 18 17 12 17 13 6 9 -1 12 34 37 35 35 32 34 36 35 32 29 31 32 29
-43 -39 -27 -17 -7 -4 11 13 21 27 31 28 20 22 21 12 15 16 11 12 30 40 43 43 40 41 43 38 35 38 39 39 34
-32 -25 -8 -4 6 14 18 27 26 25 24 28 31 31 11 11 19 22 14 20 31 43 47 49 48 48 48 43 41 44 46 45 42
-15 -9 6 7 13 18 23 25 27 28 20 16 23 23 17 15 18 27 22 28 33 50 53 54 56 56 51 48 50 48 47 43 34
9 13 12 20 20 22 21 21 19 22 18 16 17 12 16 21 23 25 30 29 28 41 64 59 55 57 51 48 53 54 46 31 28
16 21 21 23 23 21 17 18 13 14 11 10 9 13 19 25 30 32 33 34 34 33 44 50 54 48 49 59 47 44 38 30 28
29 23 30 25 25 21 20 15 15 15 14 16 17 18 22 26 42 50 39 39 40 41 40 42 38 32 25 26 37 44 52 49 43
45 35 32 31 33 27 27 27 23 21 26 23 25 26 33 37 43 57 63 52 49 52 47 39 13 16 25 31 58 51 26 28 55
56 58 48 44 40 32 38 38 43 41 37 27 31 38 39 44 44 59 70 69 62 59 48 52 24 31 39 51 65 56 79 66 24
74 70 61 62 53 50 56 59 52 41 40 41 37 47 48 48 47 56 69 78 79 75 56 56 43 82 80 48 83 82 70 78 98
102 95 83 80 71 61 65 58 60 54 41 45 44 46 44 43 53 56 69 67 67 75 70 67 89 131 109 111 119 64 66 66 66
117 118 97 101 91 66 62 49 46 51 50 45 34 52 47 46 50 50 59 62 66 73 96 125 146 201 177 147 131 90 63 53 53
149 123 122 110 84 59 52 61 49 44 47 41 46 43 34 50 73 56 62 86 110 137 162 197 204 224 249 197 172 118 97 43 37
158 123 99 94 72 48 62 58 53 46 60 50 50 68 47 54 76 92 97 111 131 183 226 241 245 215 240 212 195 165 85 63 38
150 180 152 118 90 78 86 98 87 75 99 98 73 76 59 93 108 136 150 127 156 188 218 235 216 216 219 204 189 169 90 55 14
203 130 134 118 128 138 58 81 109 110 83 93 104 125 147 101 94 110 143 180 189 207 225 237 229 212 203 174 196 165 122 58 20
193 180 197 148 147 137 108 89 79 97 90 84 92 113 133 138 151 108 127 176 197 227 238 233 248 218 229 195 164 125 75 45 9

GFSFLT1_con_3kmhel_099.txt.gz
Helicity
0 -5 -14 -26 -31 -31 -34 -33 -30 -21 -20 -8 -6 -2 -6 -19 -9 -9 -3 6 13 14 14 19 20 21 22 20 25 26 25 20 17
-4 -20 -33 -42 -41 -34 -34 -27 -24 -15 -18 -1 4 2 -1 -4 -2 -4 1 14 23 22 23 19 19 21 23 27 27 31 31 25 23
-20 -32 -38 -44 -37 -32 -22 -17 -10 -5 -1 11 8 8 1 1 3 2 5 14 27 28 28 26 28 30 32 34 34 35 35 30 28
-28 -32 -33 -29 -20 -15 -8 -2 2 9 14 14 8 11 9 5 2 3 7 8 28 32 36 36 38 38 40 43 42 42 38 31 31
-27 -21 -16 -6 -2 5 9 11 15 21 21 16 18 23 15 9 6 5 9 5 28 33 39 44 47 47 47 49 50 50 42 34 34
-18 -9 8 16 12 21 19 22 26 27 24 20 16 14 11 10 6 8 10 9 31 37 41 47 49 51 52 53 52 48 37 43 38
-12 1 13 23 20 21 22 23 25 18 16 13 17 13 13 13 12 11 9 12 20 42 43 47 47 46 50 45 51 48 48 34 29
6 11 19 21 23 17 20 18 18 16 16 15 15 13 12 14 16 17 11 11 12 21 45 45 41 43 40 40 37 36 28 26 26
21 23 26 26 23 19 15 19 19 21 17 15 14 13 15 21 26 27 17 14 15 15 22 29 39 32 37 46 47 48 41 34 33
26 28 25 27 28 21 19 21 22 19 18 14 13 14 18 24 33 38 32 26 29 30 28 25 19 20 15 26 30 31 38 52 49
36 35 30 33 36 36 34 26 23 18 19 18 23 25 27 31 35 39 44 41 41 45 36 34 12 25 27 57 58 49 41 8 8
46 45 41 48 51 46 42 34 33 29 28 26 29 31 30 32 30 39 43 43 53 50 50 30 20 30 54 77 79 91 65 56 93
55 61 47 67 72 68 52 48 44 39 38 36 34 37 34 30 27 37 43 49 57 54 46 36 34 63 81 94 100 74 62 46 64
66 79 76 95 85 82 79 64 53 50 38 23 27 24 26 29 37 42 41 49 62 62 66 68 74 80 66 94 72 59 47 19 40
59 78 96 126 124 111 97 69 56 44 48 39 25 36 34 42 51 42 31 40 50 62 71 91 126 162 170 131 142 122 92 75 51
56 74 101 123 133 104 95 88 59 58 58 46 45 43 43 43 57 53 70 63 66 93 116 149 178 221 303 252 212 163 106 81 54
88 71 91 90 110 115 96 84 92 63 61 61 58 53 40 59 81 101 99 89 74 93 125 164 205 205 192 209 226 158 123 85 46
134 121 125 122 108 116 97 76 62 81 93 92 74 57 46 54 85 105 116 106 111 112 144 169 218 211 187 171 164 159 136 93 46
170 192 172 200 192 131 164 148 111 102 76 82 87 93 100 76 70 93 119 123 128 128 140 168 194 205 213 209 199 178 139 84 26
189 275 275 283 249 228 194 178 89 85 43 58 88 86 83 84 85 78 112 128 144 148 157 158 186 201 205 192 188 167 139 103 30

GFSFLT1_con_3kmhel_102.txt.gz
Helicity
19 13 9 17 5 -14 -25 -18 -13 -11 -9 -1 -4 -5 -18 -36 -3 6 5 7 8 17 20 25 26 28 25 25 27 28 30 30 30
24 26 11 1 -13 -24 -20 -6 -8 -13 -7 -1 -0 -4 -22 -1 2 6 7 13 15 22 26 30 33 36 32 31 32 33 36 32 32
15 14 -10 -18 -15 -21 -13 -5 1 -4 3 2 2 -4 -30 -2 7 7 11 7 19 27 30 37 41 41 38 40 39 40 40 39 37
1 -6 -18 -16 -14 -5 -1 4 11 12 8 10 7 1 -17 -2 9 6 10 9 24 28 33 37 41 49 48 46 41 42 41 37 38
-11 -13 -19 -14 -4 11 13 19 12 18 17 13 9 7 -7 10 9 11 25 8 23 26 30 36 46 49 52 49 46 42 35 39 41
-20 -2 5 15 10 20 23 24 26 24 27 20 14 -8 5 9 12 15 38 9 22 27 29 32 43 49 51 45 42 44 36 39 32
1 18 25 25 25 31 32 26 28 -3 8 15 3 -0 10 10 16 23 29 13 12 27 28 32 38 43 39 33 38 34 30 32 32
10 14 15 16 9 15 15 19 4 10 10 10 8 9 7 14 18 35 30 18 16 13 27 38 38 42 34 34 36 39 42 40 36
9 19 22 23 21 23 22 16 16 9 9 9 7 12 12 17 26 44 39 27 18 15 14 18 36 29 30 31 40 44 47 40 38
26 31 35 32 37 31 29 22 23 14 11 14 9 10 15 20 28 30 51 39 32 27 22 21 33 29 36 28 20 15 24 29 40
33 42 41 40 43 40 36 35 30 24 19 20 23 25 25 27 37 40 47 42 37 34 28 33 15 43 30 50 46 71 63 53 -0
49 50 46 46 49 54 57 50 44 37 36 27 32 34 37 43 40 41 34 41 40 45 32 28 14 46 55 94 111 103 86 50 53
52 52 46 50 58 59 62 65 62 56 53 44 47 40 36 33 27 36 28 33 33 59 48 48 40 35 89 98 65 95 87 65 47
49 54 50 57 57 71 75 79 80 75 72 61 52 40 39 30 33 23 34 28 30 38 91 61 55 72 90 97 106 106 94 65 67
44 54 56 75 74 85 94 85 89 90 81 65 45 34 42 42 43 34 33 36 34 32 46 57 118 164 166 182 157 133 114 96 68
36 54 73 78 82 85 87 105 115 104 72 65 53 54 48 52 44 37 50 57 58 61 63 85 97 179 302 271 208 161 137 112 70
35 45 66 70 72 81 103 126 128 108 84 89 99 82 56 58 52 59 67 61 55 68 80 94 124 133 176 182 198 183 153 111 76
66 73 90 89 86 95 113 108 96 119 126 85 94 91 74 66 62 55 62 64 68 88 98 114 134 163 184 172 175 171 108 82 73
90 73 74 117 163 210 214 206 195 208 154 107 100 78 83 85 62 32 48 65 84 100 111 118 146 170 186 192 193 167 146 99 72
96 102 195 231 247 214 254 290 299 323 270 213 101 48 48 48 53 62 32 65 86 113 125 139 152 158 172 204 205 190 172 156 69

GFSFLT1_con_3kmhel_105.txt.gz
Helicity
25 15 49 64 34 24 10 1 -2 1 4 4 -0 -19 -20 72 -0 5 11 14 13 16 20 26 27 30 32 33 30 31 32 28 27
17 30 54 50 28 10 12 12 6 -1 4 6 3 -14 1 5 2 10 15 17 19 24 26 32 36 36 39 43 39 35 33 31 29
25 31 26 16 15 1 13 12 6 -0 4 3 -1 -15 -8 -1 9 19 22 17 26 28 34 40 43 45 49 46 44 41 40 36 31
27 13 -4 -2 1 -0 9 15 16 9 9 4 -0 -10 -9 -18 9 15 25 19 29 34 35 39 43 49 49 49 47 42 40 34 33
15 -12 -23 -7 -3 2 13 21 27 25 14 5 -0 -14 -30 3 12 21 35 28 32 33 36 40 46 45 48 48 42 43 36 36 31
9 1 -6 -5 10 18 28 24 29 32 19 11 -0 -17 -5 12 15 34 47 27 28 31 34 37 44 47 50 41 40 37 32 31 35
-14 22 17 25 29 36 34 26 19 2 14 13 2 -6 14 13 20 53 50 32 23 30 33 38 40 42 42 38 38 37 39 42 40
7 20 18 20 14 20 24 22 7 2 13 17 3 13 10 14 26 59 47 30 21 20 29 42 42 39 34 30 41 41 41 39 40
17 19 15 17 19 15 9 17 14 13 10 10 7 16 10 14 26 71 56 37 27 25 21 24 44 34 25 25 29 38 38 33 36
26 27 31 30 30 29 26 21 25 11 9 15 10 12 10 14 33 46 54 45 36 31 21 20 32 28 31 23 22 22 21 33 29
45 49 45 44 40 40 33 22 23 20 21 13 12 11 17 23 38 40 54 40 35 29 25 15 2 7 23 41 55 67 87 77 58
55 59 60 50 47 39 33 32 36 36 33 28 20 21 16 29 30 39 53 50 46 43 45 33 23 31 35 58 85 75 95 81 65
59 82 60 53 44 44 47 46 45 44 43 38 36 35 26 26 53 41 22 31 46 36 46 64 53 37 47 67 71 92 111 112 82
60 56 45 42 55 57 58 56 60 60 69 56 57 65 46 52 30 31 55 47 44 41 79 80 85 56 69 89 121 131 133 117 79
61 61 52 53 52 55 62 59 69 67 70 93 84 61 57 48 48 64 52 70 57 38 51 76 100 127 99 168 166 152 131 124 83
69 64 57 71 64 41 45 62 76 104 128 143 94 64 77 65 80 59 49 73 45 55 55 105 98 127 278 277 199 167 150 129 92
60 56 58 39 47 42 52 76 108 115 113 113 103 177 107 104 85 59 70 71 51 58 66 91 107 101 191 197 208 181 150 133 92
79 86 80 89 105 82 79 80 102 121 129 80 185 184 141 163 81 50 59 56 52 68 81 112 115 132 154 154 201 195 170 141 86
99 93 70 42 76 86 120 160 283 146 155 235 244 244 195 167 109 104 53 51 60 84 92 102 118 149 172 200 214 208 178 124 104
56 49 77 70 123 151 102 154 167 207 259 298 266 261 264 213 138 183 135 57 54 95 109 118 130 133 150 196 223 237 221 195 133

GFSFLT1_con_3kmhel_108.txt.gz
Helicity
39 24 48 51 47 35 30 17 20 24 18 11 -3 22 46 22 -2 11 27 9 22 27 28 28 29 30 30 31 35 34 31 33 29
66 57 57 40 43 19 9 13 19 18 19 11 3 28 47 -12 7 18 12 12 30 31 33 36 35 35 40 43 42 35 32 30 30
74 60 44 28 29 15 15 13 10 16 16 13 8 25 39 12 18 23 10 20 33 36 38 38 39 42 46 46 39 35 36 28 30
70 62 30 33 17 9 11 12 6 12 15 13 7 6 36 27 11 32 8 24 36 42 41 40 45 47 46 44 36 36 30 30 25
69 66 23 28 10 13 18 20 18 17 15 13 6 4 16 -0 24 28 20 29 36 39 39 40 42 45 45 36 29 28 24 23 22
73 46 18 16 10 12 18 23 28 26 13 9 -4 -11 -0 -23 25 47 43 36 38 40 41 37 39 41 40 32 26 26 26 30 32
76 57 30 26 28 33 32 20 17 10 9 14 -5 -12 -10 22 45 40 49 38 32 41 39 35 31 34 37 29 29 29 27 32 32
106 72 51 44 39 33 31 23 9 -6 2 33 15 3 3 11 47 39 44 35 29 28 31 40 33 27 25 26 33 32 30 31 33
76 58 37 39 24 17 21 20 -4 -2 -0 9 -1 31 7 10 52 51 39 31 24 18 15 15 29 21 25 23 36 39 37 42 30
59 47 27 24 21 1 19 27 21 29 7 -4 11 23 20 -5 48 44 28 25 23 18 19 22 16 17 22 11 35 48 65 72 55
63 47 36 31 44 32 39 34 28 19 14 15 16 10 21 39 55 55 34 23 23 22 21 25 24 43 37 33 69 89 94 82 68
99 84 64 56 69 55 55 34 34 33 41 27 30 30 13 35 31 57 60 45 34 44 24 30 43 50 44 54 99 95 107 105 96
85 80 79 81 80 57 55 48 64 63 55 46 21 37 43 36 71 77 53 57 53 37 52 66 54 49 38 79 117 124 142 149 121
94 97 99 75 59 50 53 59 69 54 52 52 43 72 69 68 75 42 100 97 81 62 78 98 54 56 57 124 145 133 134 140 118
111 88 66 52 77 67 58 44 52 63 56 62 85 130 99 74 104 105 96 99 95 84 72 83 74 92 68 146 175 171 165 138 120
82 86 79 88 82 46 48 54 63 68 61 121 126 96 68 105 143 122 102 104 85 76 84 84 74 131 253 238 179 157 156 144 118
92 76 88 98 98 94 72 57 84 72 79 153 161 147 145 218 161 121 120 109 81 80 95 90 93 115 138 166 182 174 159 136 115
107 104 109 150 143 130 114 102 93 78 95 97 166 212 231 234 166 115 88 78 90 100 106 128 134 128 114 141 168 171 178 153 128
113 119 137 121 116 105 97 93 86 89 73 200 230 247 253 257 171 149 85 108 109 107 89 118 134 142 137 148 155 165 167 145 116
95 103 103 108 88 80 67 65 36 90 108 146 264 261 241 203 183 82 61 109 77 105 71 98 102 119 127 159 171 189 182 189 153

GFSFLT1_con_3kmhel_111.txt.gz
Helicity
53 83 101 82 61 31 14 15 11 13 15 29 54 73 79 18 22 8 11 0 18 24 27 29 33 35 35 36 36 39 40 37 41
65 99 88 70 50 21 8 17 20 21 15 28 46 65 61 20 7 10 7 2 22 26 31 36 37 37 37 37 39 38 38 33 37
96 93 85 77 42 14 9 16 19 18 22 23 39 52 51 15 9 10 3 14 23 29 33 36 36 40 39 41 34 34 35 36 33
90 87 81 79 66 36 17 10 12 15 19 16 23 37 35 9 6 7 3 15 27 31 33 36 40 39 41 36 29 26 29 32 32
55 84 78 79 67 42 22 10 7 11 16 16 13 28 27 16 29 6 5 23 27 27 31 33 36 38 36 34 26 28 27 34 34
117 55 71 80 53 40 25 18 22 11 8 8 2 11 6 7 22 11 27 28 30 28 26 28 31 33 31 24 26 27 29 32 37
108 65 62 55 38 31 25 18 14 12 7 5 -4 3 15 16 27 21 28 31 29 27 27 26 25 30 33 24 28 27 23 26 30
113 88 81 66 50 48 47 25 13 5 10 17 8 10 5 19 26 20 27 32 26 23 29 27 25 30 31 37 28 27 35 30 38
121 85 62 66 57 44 34 22 8 4 10 18 11 2 11 29 30 26 27 25 25 22 19 15 20 21 29 41 34 31 43 48 48
122 102 65 47 39 30 22 17 8 4 6 17 19 15 14 23 37 28 25 12 18 23 21 16 19 19 25 44 59 58 64 79 70
115 94 65 41 33 16 24 19 24 8 18 6 8 17 13 22 50 34 25 17 18 16 16 15 25 35 25 47 96 108 103 93 99
103 82 50 22 22 32 34 23 37 27 28 15 22 22 26 28 56 73 53 34 14 28 21 29 41 45 43 64 110 122 124 118 116
116 84 54 57 72 62 62 62 41 35 42 44 33 31 27 46 68 67 71 68 41 42 65 73 60 39 29 54 118 122 126 122 110
135 112 97 99 93 88 79 60 61 54 47 37 28 27 49 56 73 118 126 124 101 82 91 89 68 33 28 85 113 106 117 110 114
132 129 110 111 108 80 71 61 59 59 43 50 39 64 103 112 122 161 128 112 106 77 82 83 75 55 54 93 129 115 113 114 119
125 128 112 108 88 53 67 79 60 54 67 88 55 80 95 100 147 164 139 134 117 114 81 79 61 90 198 194 145 118 121 102 97
135 118 94 95 87 92 94 98 93 74 82 90 93 127 169 166 180 176 137 128 115 126 80 85 92 86 120 147 159 141 120 107 97
119 98 119 127 161 169 136 136 101 95 149 109 111 130 156 204 229 189 143 132 131 129 117 112 100 110 126 133 134 126 103 101 101
141 136 142 154 169 169 139 116 114 116 99 122 163 162 211 294 269 220 166 181 130 93 53 105 127 121 120 131 138 132 138 146 124
135 129 121 115 107 107 83 72 91 112 102 129 162 273 427 168 205 117 153 155 106 90 91 110 121 137 145 141 147 175 203 198 175

GFSFLT1_con_3kmhel_114.txt.gz
Helicity
69 86 101 110 83 58 48 18 -4 5 20 44 48 30 42 40 19 17 15 2 22 22 22 26 32 38 38 36 40 39 39 39 38
105 124 111 87 79 67 54 27 2 10 30 50 61 32 19 5 14 18 10 2 22 23 23 27 31 35 36 38 37 37 33 37 39
111 110 89 80 71 67 54 37 15 13 25 38 43 39 21 13 19 12 5 15 19 23 27 29 30 28 31 33 30 31 32 34 37
107 106 71 67 63 63 53 40 23 16 18 22 36 44 19 8 5 8 1 15 23 24 23 25 26 26 31 30 27 26 32 34 36
116 89 81 65 72 66 44 32 22 16 15 16 28 49 42 15 13 8 -3 17 21 24 25 24 25 27 33 34 28 30 31 33 35
115 103 102 117 84 66 41 28 24 15 14 17 23 38 27 17 14 2 6 21 19 21 24 22 23 27 35 34 32 30 29 27 29
96 110 115 111 81 57 40 34 34 24 27 27 26 29 26 19 22 7 10 23 22 22 23 22 23 28 35 30 31 28 24 22 26
211 124 111 116 82 60 57 49 41 28 27 25 22 20 19 19 13 1 12 14 21 23 20 19 19 20 29 35 33 29 30 31 34
198 136 109 109 88 71 49 47 36 23 13 20 21 13 24 24 23 6 9 5 15 16 13 10 24 20 29 33 38 42 34 35 25
181 120 92 94 80 75 59 47 34 22 13 17 13 12 16 17 31 28 -1 8 3 11 12 8 13 14 19 28 46 52 46 60 55
156 130 86 74 71 58 54 47 30 16 30 17 23 20 15 24 31 32 18 14 12 6 13 12 17 20 16 36 75 87 86 79 73
155 126 89 71 66 49 49 36 36 31 25 14 15 21 15 35 26 35 50 19 1 7 19 23 37 43 31 29 86 95 92 89 98
128 125 105 96 73 57 53 50 44 39 44 29 21 26 34 31 41 55 68 64 47 39 43 64 81 49 29 25 74 88 88 102 103
155 139 115 100 81 70 65 67 78 63 54 48 44 45 36 23 67 92 81 87 89 89 103 100 64 41 27 13 76 100 107 109 110
160 159 124 108 97 87 88 99 82 79 71 67 58 43 36 56 98 124 137 129 115 127 121 94 90 61 53 73 112 122 114 109 87
159 161 132 129 116 105 106 118 93 75 93 103 77 80 101 106 130 174 180 177 153 127 106 104 95 94 158 175 160 129 116 96 79
178 179 163 155 149 127 116 124 139 115 128 127 125 117 119 136 145 184 194 168 147 127 106 108 99 112 136 144 141 120 88 73 67
184 171 176 157 150 117 108 122 139 167 161 105 144 138 121 161 200 194 194 209 170 130 114 93 81 92 111 119 117 105 80 64 70
182 170 158 144 159 127 139 170 178 184 162 133 86 137 137 142 159 215 324 302 178 132 142 107 75 110 121 138 145 142 121 122 136
188 195 185 186 194 208 217 171 135 149 145 127 111 124 181 200 226 260 352 289 178 154 114 86 130 132 133 141 155 173 179 196 170

GFSFLT1_con_3kmhel_117.txt.gz
Helicity
63 88 96 81 77 72 57 50 42 20 10 15 23 34 29 28 17 20 14 -2 16 20 24 22 25 32 36 32 30 31 27 29 31
78 98 122 109 73 56 45 43 42 35 22 22 20 28 29 22 22 15 7 3 19 24 25 22 26 33 33 31 29 29 26 28 27
109 118 107 93 79 65 43 41 49 42 37 34 22 24 19 18 19 13 7 14 24 23 22 24 27 30 32 31 26 27 25 26 29
102 121 94 74 72 73 53 43 55 49 43 36 35 18 24 15 10 11 6 7 23 27 21 21 25 32 33 29 26 25 24 25 27
103 106 90 74 75 76 59 48 47 51 43 37 36 25 30 18 10 12 1 14 20 23 25 25 24 29 35 34 30 25 27 28 24
118 107 81 77 78 74 57 49 46 49 43 46 43 43 23 18 12 9 -7 12 18 19 22 25 25 27 32 29 29 29 21 21 24
126 102 100 111 100 83 64 52 53 58 46 43 45 28 25 20 19 10 -8 8 19 18 18 21 21 23 25 27 27 23 22 24 30
149 120 134 133 136 119 83 79 64 45 40 39 39 30 25 24 18 11 -7 1 11 20 17 16 15 18 17 23 23 23 25 21 22
157 146 161 169 163 136 90 76 62 48 40 41 41 37 27 25 24 18 -2 -6 -1 8 11 14 15 13 12 20 28 27 29 26 19
184 191 182 146 157 137 100 77 62 48 40 38 35 29 21 20 30 29 3 -7 -8 -5 1 3 13 12 5 12 26 33 40 36 49
233 227 171 144 137 123 110 87 69 45 46 35 32 23 35 24 19 25 19 -7 8 -9 -4 5 11 14 20 18 39 48 64 69 70
262 243 196 153 147 123 107 84 79 63 54 33 35 36 34 35 23 34 27 28 9 -8 4 12 26 36 41 26 45 74 89 88 81
275 256 231 183 138 132 103 96 77 64 62 47 41 43 47 37 31 42 53 38 37 42 21 42 63 67 54 35 35 70 106 102 90
178 215 202 172 129 134 99 89 88 73 58 53 46 48 50 47 49 46 70 73 63 72 80 100 96 67 45 31 31 125 117 107 82
194 161 167 155 148 135 105 81 90 76 78 75 74 69 61 59 49 62 91 93 108 114 125 122 102 64 44 56 108 157 111 88 79
216 177 153 143 141 117 89 108 99 82 110 129 100 98 83 62 53 110 154 179 166 155 126 108 99 109 104 125 151 116 94 86 67
300 188 140 123 149 132 118 119 149 129 154 153 152 138 133 104 103 147 181 191 192 192 132 114 107 97 121 161 173 148 114 89 68
208 132 110 139 159 158 158 146 153 159 162 170 187 194 172 178 158 153 162 188 227 202 182 149 136 115 121 145 150 134 119 93 86
225 182 107 150 177 177 175 190 187 193 181 197 173 201 183 199 182 192 199 223 235 246 210 185 165 131 126 123 130 136 127 126 125
113 141 144 174 189 176 201 211 208 227 216 248 220 158 179 163 175 179 167 242 257 254 256 221 215 132 113 146 103 102 134 148 130

GFSFLT1_con_3kmhel_120.txt.gz
Helicity
70 65 62 71 73 88 78 58 43 36 34 29 29 19 21 25 22 19 14 2 17 23 23 22 23 25 26 25 21 18 18 21 26
78 82 79 49 75 72 55 46 30 40 43 39 34 27 27 19 18 15 5 -2 20 21 24 27 25 23 25 23 21 21 20 22 22
94 97 98 89 54 49 50 41 37 40 48 45 37 29 25 19 16 12 4 8 20 25 23 25 25 26 24 20 22 22 23 23 23
101 101 109 86 56 35 46 41 45 45 51 41 36 30 27 21 12 11 5 5 21 24 24 24 25 25 23 25 23 20 21 20 19
114 102 95 79 79 50 49 54 50 48 49 54 36 31 33 23 13 10 3 6 22 23 25 25 20 23 26 22 20 16 14 17 18
128 106 88 86 81 75 56 62 66 63 55 53 46 43 29 27 14 13 -3 5 21 27 25 25 25 24 31 22 18 14 13 16 17
143 107 91 86 88 81 81 69 73 78 71 59 51 41 32 23 19 18 2 3 18 22 20 18 19 20 24 21 19 15 15 18 19
159 138 105 108 109 120 103 96 83 73 73 61 51 43 34 31 22 19 8 -0 10 18 15 14 12 11 13 17 20 21 21 22 21
203 168 152 134 153 139 136 109 86 77 71 62 52 44 38 33 28 17 7 3 -8 7 10 12 9 11 12 14 18 28 32 34 25
208 186 193 168 167 156 147 119 99 77 69 70 61 46 37 32 37 35 9 4 -8 -17 -8 4 16 21 20 16 19 35 42 59 59
213 219 188 190 183 164 149 128 116 87 73 60 60 50 43 35 33 38 23 -0 -1 -6 -19 2 17 15 14 22 24 48 85 92 80
235 229 222 232 229 187 160 136 126 110 85 52 58 53 47 43 33 40 37 27 14 7 -8 2 10 20 29 36 35 82 110 89 82
237 243 237 270 268 217 163 160 138 115 96 63 53 56 56 46 38 50 53 49 39 32 21 30 32 43 55 50 40 72 105 88 82
216 303 289 304 298 217 189 164 143 121 99 72 59 60 60 56 55 54 57 63 72 78 61 47 67 63 61 38 35 84 116 90 85
217 315 389 349 288 233 159 135 141 92 96 86 67 78 76 73 69 63 69 80 89 96 103 106 96 74 67 40 28 119 109 88 86
190 235 296 307 329 262 143 106 133 74 118 124 78 80 78 79 77 77 76 95 122 127 127 132 115 109 70 72 118 108 96 106 101
301 246 312 278 272 284 173 117 110 73 144 159 141 130 133 88 95 103 107 122 180 159 141 143 130 127 141 147 138 115 120 108 98
330 278 320 298 295 411 269 89 116 93 170 173 183 175 146 131 174 143 139 164 186 172 163 146 147 151 168 190 179 157 138 106 92
250 224 279 313 347 313 229 122 133 168 146 211 184 210 175 151 166 187 187 186 183 175 177 171 178 177 184 180 159 155 101 116 103
209 268 346 355 308 153 123 150 175 168 190 236 250 239 231 210 208 185 197 187 176 185 204 218 251 244 237 223 150 160 137 140 147